2016 Cux-Wetter.de -Die Nutzung der Wetterdaten nur mit ausdrcklicher Genehmigung
Wetterdaten: Sonntag, 09.10.2016
Datum Zeit Temp. A. Feuchte A. Luftdruck Regen Wind Richtung Richtung Sonnenschein Solar Taupunkt Windchill Windben
09.10.2016 00:00 8,2 C 90 % 1025,7 hPa 0,0 l/m 2,7 km/h (1 Bft) N-NO 13 0 min 0 W/m 6,7 C 8,2 C 4,8 km/h (1 Bft)
09.10.2016 00:03 8,2 C 91 % 1025,7 hPa 0,0 l/m 2,2 km/h (1 Bft) N-NW 348 0 min 0 W/m 6,8 C 8,2 C 4,8 km/h (1 Bft)
09.10.2016 00:06 8,2 C 91 % 1025,7 hPa 0,0 l/m 1,5 km/h (1 Bft) N-NO 26 0 min 0 W/m 6,8 C 8,2 C 4,8 km/h (1 Bft)
09.10.2016 00:09 8,3 C 91 % 1025,7 hPa 0,0 l/m 2,3 km/h (1 Bft) N-NW 330 0 min 0 W/m 6,9 C 8,3 C 6,4 km/h (2 Bft)
09.10.2016 00:12 8,3 C 91 % 1025,7 hPa 0,0 l/m 2,5 km/h (1 Bft) N 5 0 min 0 W/m 6,9 C 8,3 C 6,4 km/h (2 Bft)
09.10.2016 00:15 8,4 C 91 % 1025,7 hPa 0,0 l/m 4,0 km/h (1 Bft) N 355 0 min 0 W/m 7,0 C 8,4 C 8,0 km/h (2 Bft)
09.10.2016 00:18 8,4 C 91 % 1025,7 hPa 0,0 l/m 5,2 km/h (1 Bft) N-NW 336 0 min 0 W/m 7,0 C 8,4 C 14,5 km/h (3 Bft)
09.10.2016 00:21 8,6 C 91 % 1025,7 hPa 0,0 l/m 4,0 km/h (1 Bft) N 355 0 min 0 W/m 7,2 C 8,6 C 16,1 km/h (3 Bft)
09.10.2016 00:24 8,6 C 91 % 1025,7 hPa 0,0 l/m 4,2 km/h (1 Bft) N-NW 342 0 min 0 W/m 7,2 C 8,6 C 9,7 km/h (2 Bft)
09.10.2016 00:27 8,7 C 91 % 1025,7 hPa 0,0 l/m 3,6 km/h (1 Bft) N-NO 19 0 min 0 W/m 7,3 C 8,7 C 8,0 km/h (2 Bft)
09.10.2016 00:30 8,7 C 91 % 1025,7 hPa 0,0 l/m 5,1 km/h (1 Bft) N 351 0 min 0 W/m 7,3 C 8,7 C 12,9 km/h (3 Bft)
09.10.2016 00:33 8,7 C 91 % 1025,7 hPa 0,0 l/m 3,8 km/h (1 Bft) N 5 0 min 0 W/m 7,3 C 8,7 C 8,0 km/h (2 Bft)
09.10.2016 00:36 8,7 C 91 % 1025,7 hPa 0,0 l/m 2,7 km/h (1 Bft) N 355 0 min 0 W/m 7,3 C 8,7 C 6,4 km/h (2 Bft)
09.10.2016 00:39 8,7 C 91 % 1025,7 hPa 0,0 l/m 3,5 km/h (1 Bft) NW 325 0 min 0 W/m 7,3 C 8,7 C 9,7 km/h (2 Bft)
09.10.2016 00:42 8,7 C 91 % 1025,7 hPa 0,0 l/m 2,5 km/h (1 Bft) N 349 0 min 0 W/m 7,3 C 8,7 C 4,8 km/h (1 Bft)
09.10.2016 00:45 8,6 C 91 % 1025,7 hPa 0,0 l/m 3,0 km/h (1 Bft) W-SW 253 0 min 0 W/m 7,2 C 8,6 C 6,4 km/h (2 Bft)
09.10.2016 00:48 8,6 C 91 % 1025,6 hPa 0,0 l/m 3,9 km/h (1 Bft) NO 40 0 min 0 W/m 7,2 C 8,6 C 6,4 km/h (2 Bft)
09.10.2016 00:51 8,6 C 91 % 1025,6 hPa 0,0 l/m 4,8 km/h (1 Bft) N 355 0 min 0 W/m 7,2 C 8,6 C 8,0 km/h (2 Bft)
09.10.2016 00:54 8,5 C 91 % 1025,6 hPa 0,0 l/m 3,7 km/h (1 Bft) N 355 0 min 0 W/m 7,1 C 8,5 C 6,4 km/h (2 Bft)
09.10.2016 00:57 8,5 C 91 % 1025,7 hPa 0,0 l/m 4,8 km/h (1 Bft) N-NW 328 0 min 0 W/m 7,1 C 8,5 C 11,3 km/h (2 Bft)
09.10.2016 01:00 8,4 C 91 % 1025,7 hPa 0,0 l/m 3,3 km/h (1 Bft) O-NO 66 0 min 0 W/m 7,0 C 8,4 C 9,7 km/h (2 Bft)
09.10.2016 01:03 8,4 C 91 % 1025,6 hPa 0,0 l/m 1,6 km/h (1 Bft) N 350 0 min 0 W/m 7,0 C 8,4 C 4,8 km/h (1 Bft)
09.10.2016 01:06 8,4 C 91 % 1025,6 hPa 0,0 l/m 3,5 km/h (1 Bft) N 5 0 min 0 W/m 7,0 C 8,4 C 9,7 km/h (2 Bft)
09.10.2016 01:09 8,4 C 91 % 1025,7 hPa 0,0 l/m 4,5 km/h (1 Bft) N 355 0 min 0 W/m 7,0 C 8,4 C 6,4 km/h (2 Bft)
09.10.2016 01:12 8,4 C 91 % 1025,6 hPa 0,0 l/m 4,0 km/h (1 Bft) N 350 0 min 0 W/m 7,0 C 8,4 C 6,4 km/h (2 Bft)
09.10.2016 01:15 8,4 C 91 % 1025,6 hPa 0,0 l/m 2,2 km/h (1 Bft) W 260 0 min 0 W/m 7,0 C 8,4 C 4,8 km/h (1 Bft)
09.10.2016 01:18 8,4 C 92 % 1025,6 hPa 0,0 l/m 4,3 km/h (1 Bft) N-NW 335 0 min 0 W/m 7,2 C 8,4 C 11,3 km/h (2 Bft)
09.10.2016 01:21 8,4 C 92 % 1025,6 hPa 0,0 l/m 3,5 km/h (1 Bft) NO 54 0 min 0 W/m 7,2 C 8,4 C 6,4 km/h (2 Bft)
09.10.2016 01:24 8,4 C 92 % 1025,6 hPa 0,0 l/m 3,6 km/h (1 Bft) N-NW 341 0 min 0 W/m 7,2 C 8,4 C 6,4 km/h (2 Bft)
09.10.2016 01:27 8,4 C 92 % 1025,6 hPa 0,0 l/m 3,1 km/h (1 Bft) W-NW 300 0 min 0 W/m 7,2 C 8,4 C 8,0 km/h (2 Bft)
09.10.2016 01:30 8,4 C 92 % 1025,5 hPa 0,0 l/m 2,4 km/h (1 Bft) N-NW 348 0 min 0 W/m 7,2 C 8,4 C 4,8 km/h (1 Bft)
09.10.2016 01:33 8,4 C 92 % 1025,5 hPa 0,0 l/m 2,9 km/h (1 Bft) N-NO 30 0 min 0 W/m 7,2 C 8,4 C 6,4 km/h (2 Bft)
09.10.2016 01:36 8,4 C 92 % 1025,5 hPa 0,0 l/m 3,6 km/h (1 Bft) N-NO 26 0 min 0 W/m 7,2 C 8,4 C 6,4 km/h (2 Bft)
09.10.2016 01:39 8,3 C 92 % 1025,5 hPa 0,0 l/m 2,5 km/h (1 Bft) NW 312 0 min 0 W/m 7,1 C 8,3 C 6,4 km/h (2 Bft)
09.10.2016 01:42 8,3 C 92 % 1025,6 hPa 0,0 l/m 3,8 km/h (1 Bft) NO 55 0 min 0 W/m 7,1 C 8,3 C 8,0 km/h (2 Bft)
09.10.2016 01:45 8,2 C 92 % 1025,5 hPa 0,0 l/m 3,5 km/h (1 Bft) N-NW 329 0 min 0 W/m 7,0 C 8,2 C 6,4 km/h (2 Bft)
09.10.2016 01:48 8,2 C 92 % 1025,5 hPa 0,0 l/m 3,1 km/h (1 Bft) N 355 0 min 0 W/m 7,0 C 8,2 C 6,4 km/h (2 Bft)
09.10.2016 01:51 8,1 C 92 % 1025,5 hPa 0,0 l/m 3,5 km/h (1 Bft) N-NW 338 0 min 0 W/m 6,9 C 8,1 C 8,0 km/h (2 Bft)
09.10.2016 01:54 8,1 C 92 % 1025,5 hPa 0,0 l/m 2,8 km/h (1 Bft) N-NW 340 0 min 0 W/m 6,9 C 8,1 C 6,4 km/h (2 Bft)
09.10.2016 01:57 8,0 C 92 % 1025,5 hPa 0,0 l/m 2,6 km/h (1 Bft) NW 324 0 min 0 W/m 6,8 C 8,0 C 8,0 km/h (2 Bft)
09.10.2016 02:00 7,9 C 92 % 1025,5 hPa 0,0 l/m 3,7 km/h (1 Bft) N-NW 341 0 min 0 W/m 6,7 C 7,9 C 9,7 km/h (2 Bft)
09.10.2016 02:03 7,9 C 93 % 1025,4 hPa 0,0 l/m 2,8 km/h (1 Bft) N-NW 339 0 min 0 W/m 6,8 C 7,9 C 6,4 km/h (2 Bft)
09.10.2016 02:06 7,9 C 93 % 1025,4 hPa 0,0 l/m 2,8 km/h (1 Bft) N-NO 19 0 min 0 W/m 6,8 C 7,9 C 6,4 km/h (2 Bft)
09.10.2016 02:09 7,8 C 93 % 1025,4 hPa 0,0 l/m 2,9 km/h (1 Bft) N 355 0 min 0 W/m 6,7 C 7,8 C 9,7 km/h (2 Bft)
09.10.2016 02:12 7,8 C 93 % 1025,5 hPa 0,0 l/m 2,7 km/h (1 Bft) N-NW 344 0 min 0 W/m 6,7 C 7,8 C 6,4 km/h (2 Bft)
09.10.2016 02:15 7,8 C 93 % 1025,4 hPa 0,0 l/m 2,8 km/h (1 Bft) N 9 0 min 0 W/m 6,7 C 7,8 C 4,8 km/h (1 Bft)
09.10.2016 02:18 7,8 C 93 % 1025,4 hPa 0,0 l/m 2,6 km/h (1 Bft) N 349 0 min 0 W/m 6,7 C 7,8 C 9,7 km/h (2 Bft)
09.10.2016 02:21 7,7 C 93 % 1025,4 hPa 0,0 l/m 3,0 km/h (1 Bft) N 351 0 min 0 W/m 6,6 C 7,7 C 11,3 km/h (2 Bft)
09.10.2016 02:24 7,7 C 93 % 1025,4 hPa 0,0 l/m 3,8 km/h (1 Bft) NW 316 0 min 0 W/m 6,6 C 7,7 C 6,4 km/h (2 Bft)
09.10.2016 02:27 7,7 C 94 % 1025,4 hPa 0,0 l/m 2,1 km/h (1 Bft) N-NW 329 0 min 0 W/m 6,8 C 7,7 C 4,8 km/h (1 Bft)
09.10.2016 02:30 7,7 C 94 % 1025,4 hPa 0,0 l/m 3,3 km/h (1 Bft) N 360 0 min 0 W/m 6,8 C 7,7 C 6,4 km/h (2 Bft)
09.10.2016 02:33 7,7 C 94 % 1025,4 hPa 0,0 l/m 4,2 km/h (1 Bft) N-NW 327 0 min 0 W/m 6,8 C 7,7 C 9,7 km/h (2 Bft)
09.10.2016 02:36 7,7 C 94 % 1025,3 hPa 0,0 l/m 3,7 km/h (1 Bft) W-NW 302 0 min 0 W/m 6,8 C 7,7 C 8,0 km/h (2 Bft)
09.10.2016 02:39 7,7 C 94 % 1025,3 hPa 0,0 l/m 3,1 km/h (1 Bft) N 355 0 min 0 W/m 6,8 C 7,7 C 8,0 km/h (2 Bft)
09.10.2016 02:42 7,8 C 94 % 1025,3 hPa 0,0 l/m 3,7 km/h (1 Bft) NW 322 0 min 0 W/m 6,9 C 7,8 C 6,4 km/h (2 Bft)
09.10.2016 02:45 7,9 C 95 % 1025,3 hPa 0,0 l/m 2,9 km/h (1 Bft) N 355 0 min 0 W/m 7,1 C 7,9 C 4,8 km/h (1 Bft)
09.10.2016 02:48 8,1 C 95 % 1025,3 hPa 0,0 l/m 3,7 km/h (1 Bft) N-NW 340 0 min 0 W/m 7,3 C 8,1 C 8,0 km/h (2 Bft)
09.10.2016 02:51 8,1 C 95 % 1025,3 hPa 0,0 l/m 4,8 km/h (1 Bft) N 5 0 min 0 W/m 7,3 C 8,1 C 8,0 km/h (2 Bft)
09.10.2016 02:54 8,2 C 95 % 1025,3 hPa 0,0 l/m 3,4 km/h (1 Bft) N-NW 334 0 min 0 W/m 7,4 C 8,2 C 6,4 km/h (2 Bft)
09.10.2016 02:57 8,3 C 95 % 1025,3 hPa 0,0 l/m 3,7 km/h (1 Bft) N-NO 32 0 min 0 W/m 7,5 C 8,3 C 8,0 km/h (2 Bft)
09.10.2016 03:00 8,3 C 95 % 1025,2 hPa 0,0 l/m 3,9 km/h (1 Bft) N-NO 15 0 min 0 W/m 7,5 C 8,3 C 12,9 km/h (3 Bft)
09.10.2016 03:03 8,4 C 95 % 1025,2 hPa 0,0 l/m 3,4 km/h (1 Bft) N 5 0 min 0 W/m 7,6 C 8,4 C 9,7 km/h (2 Bft)
09.10.2016 03:06 8,4 C 95 % 1025,2 hPa 0,0 l/m 3,5 km/h (1 Bft) NW 323 0 min 0 W/m 7,6 C 8,4 C 6,4 km/h (2 Bft)
09.10.2016 03:09 8,4 C 95 % 1025,2 hPa 0,0 l/m 3,5 km/h (1 Bft) N 11 0 min 0 W/m 7,6 C 8,4 C 11,3 km/h (2 Bft)
09.10.2016 03:12 8,4 C 95 % 1025,1 hPa 0,0 l/m 3,8 km/h (1 Bft) NW 326 0 min 0 W/m 7,6 C 8,4 C 8,0 km/h (2 Bft)
09.10.2016 03:15 8,5 C 95 % 1025,1 hPa 0,0 l/m 2,9 km/h (1 Bft) N-NW 327 0 min 0 W/m 7,7 C 8,5 C 8,0 km/h (2 Bft)
09.10.2016 03:18 8,6 C 95 % 1025,0 hPa 0,0 l/m 3,0 km/h (1 Bft) N-NW 327 0 min 0 W/m 7,8 C 8,6 C 8,0 km/h (2 Bft)
09.10.2016 03:21 8,6 C 95 % 1025,0 hPa 0,0 l/m 1,9 km/h (1 Bft) N 350 0 min 0 W/m 7,8 C 8,6 C 8,0 km/h (2 Bft)
09.10.2016 03:24 8,6 C 95 % 1025,0 hPa 0,0 l/m 3,5 km/h (1 Bft) NO 39 0 min 0 W/m 7,8 C 8,6 C 8,0 km/h (2 Bft)
09.10.2016 03:27 8,6 C 95 % 1025,0 hPa 0,0 l/m 2,2 km/h (1 Bft) NO 44 0 min 0 W/m 7,8 C 8,6 C 4,8 km/h (1 Bft)
09.10.2016 03:30 8,7 C 95 % 1025,0 hPa 0,0 l/m 2,4 km/h (1 Bft) W 267 0 min 0 W/m 7,9 C 8,7 C 6,4 km/h (2 Bft)
09.10.2016 03:33 8,7 C 95 % 1025,0 hPa 0,0 l/m 2,2 km/h (1 Bft) N-NW 329 0 min 0 W/m 7,9 C 8,7 C 4,8 km/h (1 Bft)
09.10.2016 03:36 8,7 C 95 % 1024,9 hPa 0,0 l/m 2,4 km/h (1 Bft) N-NW 347 0 min 0 W/m 7,9 C 8,7 C 8,0 km/h (2 Bft)
09.10.2016 03:39 8,7 C 95 % 1024,9 hPa 0,0 l/m 2,6 km/h (1 Bft) N-NW 329 0 min 0 W/m 7,9 C 8,7 C 12,9 km/h (3 Bft)
09.10.2016 03:42 8,7 C 95 % 1024,8 hPa 0,0 l/m 2,1 km/h (1 Bft) N-NW 331 0 min 0 W/m 7,9 C 8,7 C 4,8 km/h (1 Bft)
09.10.2016 03:45 8,7 C 95 % 1024,8 hPa 0,0 l/m 2,4 km/h (1 Bft) N 355 0 min 0 W/m 7,9 C 8,7 C 4,8 km/h (1 Bft)
09.10.2016 03:48 8,7 C 95 % 1024,8 hPa 0,0 l/m 2,7 km/h (1 Bft) N-NW 330 0 min 0 W/m 7,9 C 8,7 C 4,8 km/h (1 Bft)
09.10.2016 03:51 8,7 C 95 % 1024,7 hPa 0,0 l/m 2,9 km/h (1 Bft) N 349 0 min 0 W/m 7,9 C 8,7 C 6,4 km/h (2 Bft)
09.10.2016 03:54 8,7 C 95 % 1024,7 hPa 0,0 l/m 2,3 km/h (1 Bft) N 360 0 min 0 W/m 7,9 C 8,7 C 8,0 km/h (2 Bft)
09.10.2016 03:57 8,7 C 95 % 1024,7 hPa 0,0 l/m 2,9 km/h (1 Bft) N 9 0 min 0 W/m 7,9 C 8,7 C 8,0 km/h (2 Bft)
09.10.2016 04:00 8,7 C 95 % 1024,7 hPa 0,0 l/m 3,1 km/h (1 Bft) N 349 0 min 0 W/m 7,9 C 8,7 C 8,0 km/h (2 Bft)
09.10.2016 04:03 8,7 C 95 % 1024,7 hPa 0,0 l/m 3,6 km/h (1 Bft) W-NW 302 0 min 0 W/m 7,9 C 8,7 C 9,7 km/h (2 Bft)
09.10.2016 04:06 8,7 C 95 % 1024,7 hPa 0,0 l/m 3,5 km/h (1 Bft) O-NO 57 0 min 0 W/m 7,9 C 8,7 C 6,4 km/h (2 Bft)
09.10.2016 04:09 8,8 C 95 % 1024,6 hPa 0,0 l/m 4,1 km/h (1 Bft) N-NW 339 0 min 0 W/m 8,0 C 8,8 C 9,7 km/h (2 Bft)
09.10.2016 04:12 8,8 C 95 % 1024,6 hPa 0,0 l/m 4,1 km/h (1 Bft) N-NW 345 0 min 0 W/m 8,0 C 8,8 C 9,7 km/h (2 Bft)
09.10.2016 04:15 8,9 C 95 % 1024,6 hPa 0,0 l/m 3,7 km/h (1 Bft) NW 325 0 min 0 W/m 8,1 C 8,9 C 14,5 km/h (3 Bft)
09.10.2016 04:18 8,9 C 95 % 1024,6 hPa 0,0 l/m 4,7 km/h (1 Bft) NW 323 0 min 0 W/m 8,1 C 8,9 C 11,3 km/h (2 Bft)
09.10.2016 04:21 8,9 C 95 % 1024,6 hPa 0,0 l/m 3,4 km/h (1 Bft) N 350 0 min 0 W/m 8,1 C 8,9 C 8,0 km/h (2 Bft)
09.10.2016 04:24 9,0 C 95 % 1024,6 hPa 0,0 l/m 4,0 km/h (1 Bft) O-NO 59 0 min 0 W/m 8,2 C 9,0 C 12,9 km/h (3 Bft)
09.10.2016 04:27 9,1 C 95 % 1024,6 hPa 0,0 l/m 5,5 km/h (2 Bft) N 355 0 min 0 W/m 8,3 C 9,1 C 11,3 km/h (2 Bft)
09.10.2016 04:30 9,2 C 95 % 1024,5 hPa 0,0 l/m 2,7 km/h (1 Bft) N 349 0 min 0 W/m 8,4 C 9,2 C 9,7 km/h (2 Bft)
09.10.2016 04:33 9,2 C 95 % 1024,5 hPa 0,0 l/m 3,6 km/h (1 Bft) W-NW 292 0 min 0 W/m 8,4 C 9,2 C 11,3 km/h (2 Bft)
09.10.2016 04:36 9,2 C 94 % 1024,5 hPa 0,0 l/m 4,5 km/h (1 Bft) N 5 0 min 0 W/m 8,3 C 9,2 C 8,0 km/h (2 Bft)
09.10.2016 04:39 9,2 C 94 % 1024,5 hPa 0,0 l/m 3,3 km/h (1 Bft) NW 324 0 min 0 W/m 8,3 C 9,2 C 9,7 km/h (2 Bft)
09.10.2016 04:42 9,2 C 94 % 1024,5 hPa 0,0 l/m 3,3 km/h (1 Bft) NO 37 0 min 0 W/m 8,3 C 9,2 C 8,0 km/h (2 Bft)
09.10.2016 04:45 9,1 C 94 % 1024,5 hPa 0,0 l/m 3,1 km/h (1 Bft) N-NW 338 0 min 0 W/m 8,2 C 9,1 C 6,4 km/h (2 Bft)
09.10.2016 04:48 9,1 C 94 % 1024,5 hPa 0,0 l/m 2,1 km/h (1 Bft) NW 321 0 min 0 W/m 8,2 C 9,1 C 9,7 km/h (2 Bft)
09.10.2016 04:51 9,2 C 94 % 1024,5 hPa 0,0 l/m 2,5 km/h (1 Bft) NW 320 0 min 0 W/m 8,3 C 9,2 C 4,8 km/h (1 Bft)
09.10.2016 04:54 9,2 C 94 % 1024,5 hPa 0,0 l/m 4,0 km/h (1 Bft) N 10 0 min 0 W/m 8,3 C 9,2 C 6,4 km/h (2 Bft)
09.10.2016 04:57 9,2 C 94 % 1024,4 hPa 0,0 l/m 3,0 km/h (1 Bft) N-NW 338 0 min 0 W/m 8,3 C 9,2 C 8,0 km/h (2 Bft)
09.10.2016 05:00 9,2 C 94 % 1024,4 hPa 0,0 l/m 3,8 km/h (1 Bft) N-NW 340 0 min 0 W/m 8,3 C 9,2 C 12,9 km/h (3 Bft)
09.10.2016 05:03 9,2 C 94 % 1024,4 hPa 0,0 l/m 3,1 km/h (1 Bft) N-NO 18 0 min 0 W/m 8,3 C 9,2 C 6,4 km/h (2 Bft)
09.10.2016 05:06 9,2 C 94 % 1024,4 hPa 0,0 l/m 4,1 km/h (1 Bft) NW 324 0 min 0 W/m 8,3 C 9,2 C 9,7 km/h (2 Bft)
09.10.2016 05:09 9,2 C 94 % 1024,4 hPa 0,0 l/m 6,6 km/h (2 Bft) N-NW 342 0 min 0 W/m 8,3 C 9,1 C 12,9 km/h (3 Bft)
09.10.2016 05:12 9,2 C 94 % 1024,4 hPa 0,0 l/m 4,5 km/h (1 Bft) N 355 0 min 0 W/m 8,3 C 9,2 C 8,0 km/h (2 Bft)
09.10.2016 05:15 9,2 C 93 % 1024,4 hPa 0,0 l/m 5,4 km/h (2 Bft) N 355 0 min 0 W/m 8,1 C 9,2 C 9,7 km/h (2 Bft)
09.10.2016 05:18 9,2 C 93 % 1024,4 hPa 0,0 l/m 4,9 km/h (1 Bft) N-NW 347 0 min 0 W/m 8,1 C 9,2 C 9,7 km/h (2 Bft)
09.10.2016 05:21 9,3 C 93 % 1024,3 hPa 0,0 l/m 4,8 km/h (1 Bft) N-NW 328 0 min 0 W/m 8,2 C 9,3 C 12,9 km/h (3 Bft)
09.10.2016 05:24 9,3 C 93 % 1024,3 hPa 0,0 l/m 5,5 km/h (2 Bft) N-NW 347 0 min 0 W/m 8,2 C 9,3 C 12,9 km/h (3 Bft)
09.10.2016 05:27 9,3 C 93 % 1024,3 hPa 0,0 l/m 3,6 km/h (1 Bft) NW 325 0 min 0 W/m 8,2 C 9,3 C 8,0 km/h (2 Bft)
09.10.2016 05:30 9,3 C 93 % 1024,3 hPa 0,0 l/m 3,1 km/h (1 Bft) N-NO 20 0 min 0 W/m 8,2 C 9,3 C 12,9 km/h (3 Bft)
09.10.2016 05:33 9,3 C 93 % 1024,3 hPa 0,0 l/m 4,9 km/h (1 Bft) N-NW 340 0 min 0 W/m 8,2 C 9,3 C 9,7 km/h (2 Bft)
09.10.2016 05:36 9,2 C 93 % 1024,2 hPa 0,0 l/m 4,3 km/h (1 Bft) NW 323 0 min 0 W/m 8,1 C 9,2 C 6,4 km/h (2 Bft)
09.10.2016 05:39 9,3 C 93 % 1024,2 hPa 0,0 l/m 4,1 km/h (1 Bft) N-NW 337 0 min 0 W/m 8,2 C 9,3 C 9,7 km/h (2 Bft)
09.10.2016 05:42 9,2 C 93 % 1024,2 hPa 0,0 l/m 4,3 km/h (1 Bft) N 5 0 min 0 W/m 8,1 C 9,2 C 11,3 km/h (2 Bft)
09.10.2016 05:45 9,2 C 93 % 1024,2 hPa 0,0 l/m 4,5 km/h (1 Bft) N 9 0 min 0 W/m 8,1 C 9,2 C 9,7 km/h (2 Bft)
09.10.2016 05:48 9,3 C 93 % 1024,1 hPa 0,0 l/m 3,8 km/h (1 Bft) N 355 0 min 0 W/m 8,2 C 9,3 C 9,7 km/h (2 Bft)
09.10.2016 05:51 9,3 C 93 % 1024,1 hPa 0,0 l/m 2,6 km/h (1 Bft) O-NO 59 0 min 0 W/m 8,2 C 9,3 C 6,4 km/h (2 Bft)
09.10.2016 05:54 9,3 C 92 % 1024,1 hPa 0,0 l/m 2,9 km/h (1 Bft) N-NW 348 0 min 0 W/m 8,1 C 9,3 C 11,3 km/h (2 Bft)
09.10.2016 05:57 9,3 C 92 % 1024,1 hPa 0,0 l/m 2,8 km/h (1 Bft) NW 325 0 min 0 W/m 8,1 C 9,3 C 6,4 km/h (2 Bft)
09.10.2016 06:00 9,3 C 92 % 1024,1 hPa 0,0 l/m 1,9 km/h (1 Bft) N-NO 29 0 min 0 W/m 8,1 C 9,3 C 6,4 km/h (2 Bft)
09.10.2016 06:03 9,3 C 92 % 1024,1 hPa 0,0 l/m 3,6 km/h (1 Bft) N-NO 13 0 min 0 W/m 8,1 C 9,3 C 9,7 km/h (2 Bft)
09.10.2016 06:06 9,3 C 92 % 1024,1 hPa 0,0 l/m 1,7 km/h (1 Bft) W-NW 301 0 min 0 W/m 8,1 C 9,3 C 6,4 km/h (2 Bft)
09.10.2016 06:09 9,3 C 92 % 1024,1 hPa 0,0 l/m 3,5 km/h (1 Bft) NW 320 0 min 0 W/m 8,1 C 9,3 C 8,0 km/h (2 Bft)
09.10.2016 06:12 9,3 C 92 % 1024,1 hPa 0,0 l/m 2,4 km/h (1 Bft) NW 319 0 min 0 W/m 8,1 C 9,3 C 3,2 km/h (1 Bft)
09.10.2016 06:15 9,3 C 91 % 1024,0 hPa 0,0 l/m 3,2 km/h (1 Bft) N-NO 16 0 min 0 W/m 7,9 C 9,3 C 8,0 km/h (2 Bft)
09.10.2016 06:18 9,3 C 91 % 1024,0 hPa 0,0 l/m 2,6 km/h (1 Bft) S-SO 162 0 min 0 W/m 7,9 C 9,3 C 6,4 km/h (2 Bft)
09.10.2016 06:21 9,2 C 91 % 1024,0 hPa 0,0 l/m 4,7 km/h (1 Bft) N-NW 336 0 min 0 W/m 7,8 C 9,2 C 12,9 km/h (3 Bft)
09.10.2016 06:24 9,2 C 91 % 1024,0 hPa 0,0 l/m 3,5 km/h (1 Bft) N-NO 28 0 min 0 W/m 7,8 C 9,2 C 8,0 km/h (2 Bft)
09.10.2016 06:27 9,2 C 90 % 1023,9 hPa 0,0 l/m 4,2 km/h (1 Bft) N-NW 347 0 min 0 W/m 7,6 C 9,2 C 12,9 km/h (3 Bft)
09.10.2016 06:30 9,2 C 90 % 1024,0 hPa 0,0 l/m 2,8 km/h (1 Bft) N 349 0 min 0 W/m 7,6 C 9,2 C 8,0 km/h (2 Bft)
09.10.2016 06:33 9,3 C 90 % 1023,9 hPa 0,0 l/m 3,1 km/h (1 Bft) NW 321 0 min 0 W/m 7,7 C 9,3 C 6,4 km/h (2 Bft)
09.10.2016 06:36 9,3 C 90 % 1023,9 hPa 0,0 l/m 5,3 km/h (1 Bft) W-NW 288 0 min 0 W/m 7,7 C 9,3 C 11,3 km/h (2 Bft)
09.10.2016 06:39 9,3 C 90 % 1023,9 hPa 0,0 l/m 4,3 km/h (1 Bft) N-NW 331 0 min 0 W/m 7,7 C 9,3 C 9,7 km/h (2 Bft)
09.10.2016 06:42 9,4 C 90 % 1023,9 hPa 0,0 l/m 4,9 km/h (1 Bft) NW 316 0 min 0 W/m 7,8 C 9,4 C 12,9 km/h (3 Bft)
09.10.2016 06:45 9,4 C 90 % 1023,9 hPa 0,0 l/m 5,5 km/h (2 Bft) N-NO 26 0 min 0 W/m 7,8 C 9,4 C 12,9 km/h (3 Bft)
09.10.2016 06:48 9,4 C 90 % 1023,9 hPa 0,0 l/m 4,7 km/h (1 Bft) N-NW 336 0 min 0 W/m 7,8 C 9,4 C 8,0 km/h (2 Bft)
09.10.2016 06:51 9,4 C 90 % 1023,9 hPa 0,0 l/m 7,1 km/h (2 Bft) N-NW 336 0 min 0 W/m 7,8 C 8,9 C 16,1 km/h (3 Bft)
09.10.2016 06:54 9,4 C 90 % 1023,8 hPa 0,0 l/m 5,2 km/h (1 Bft) N 355 0 min 0 W/m 7,8 C 9,4 C 12,9 km/h (3 Bft)
09.10.2016 06:57 9,3 C 91 % 1023,8 hPa 0,0 l/m 5,4 km/h (2 Bft) N-NO 19 0 min 0 W/m 7,9 C 9,3 C 11,3 km/h (2 Bft)
09.10.2016 07:00 9,3 C 91 % 1023,8 hPa 0,0 l/m 6,7 km/h (2 Bft) N 10 0 min 0 W/m 7,9 C 9,1 C 14,5 km/h (3 Bft)
09.10.2016 07:03 9,3 C 91 % 1023,8 hPa 0,0 l/m 5,9 km/h (2 Bft) N 355 0 min 0 W/m 7,9 C 9,3 C 12,9 km/h (3 Bft)
09.10.2016 07:06 9,3 C 91 % 1023,8 hPa 0,0 l/m 7,5 km/h (2 Bft) N-NW 329 0 min 0 W/m 7,9 C 8,5 C 14,5 km/h (3 Bft)
09.10.2016 07:09 9,3 C 91 % 1023,8 hPa 0,0 l/m 4,2 km/h (1 Bft) N-NW 342 0 min 0 W/m 7,9 C 9,3 C 9,7 km/h (2 Bft)
09.10.2016 07:12 9,3 C 91 % 1023,8 hPa 0,0 l/m 4,7 km/h (1 Bft) N-NW 338 0 min 0 W/m 7,9 C 9,3 C 9,7 km/h (2 Bft)
09.10.2016 07:15 9,3 C 91 % 1023,7 hPa 0,0 l/m 5,2 km/h (1 Bft) N-NW 348 0 min 0 W/m 7,9 C 9,3 C 12,9 km/h (3 Bft)
09.10.2016 07:18 9,3 C 91 % 1023,8 hPa 0,0 l/m 5,4 km/h (2 Bft) N 350 0 min 0 W/m 7,9 C 9,3 C 9,7 km/h (2 Bft)
09.10.2016 07:21 9,3 C 91 % 1023,7 hPa 0,0 l/m 5,1 km/h (1 Bft) N-NW 342 0 min 0 W/m 7,9 C 9,3 C 11,3 km/h (2 Bft)
09.10.2016 07:24 9,3 C 91 % 1023,7 hPa 0,0 l/m 4,9 km/h (1 Bft) NO 40 0 min 0 W/m 7,9 C 9,3 C 14,5 km/h (3 Bft)
09.10.2016 07:27 9,3 C 91 % 1023,7 hPa 0,0 l/m 4,6 km/h (1 Bft) N 360 0 min 0 W/m 7,9 C 9,3 C 9,7 km/h (2 Bft)
09.10.2016 07:30 9,4 C 91 % 1023,7 hPa 0,0 l/m 5,4 km/h (2 Bft) N 9 0 min 0 W/m 8,0 C 9,4 C 11,3 km/h (2 Bft)
09.10.2016 07:33 9,4 C 91 % 1023,7 hPa 0,0 l/m 5,5 km/h (2 Bft) N 360 0 min 0 W/m 8,0 C 9,4 C 12,9 km/h (3 Bft)
09.10.2016 07:36 9,4 C 91 % 1023,7 hPa 0,0 l/m 6,0 km/h (2 Bft) N 5 0 min 0 W/m 8,0 C 9,4 C 14,5 km/h (3 Bft)
09.10.2016 07:39 9,4 C 91 % 1023,7 hPa 0,0 l/m 6,6 km/h (2 Bft) N 360 0 min 0 W/m 8,0 C 9,3 C 17,7 km/h (3 Bft)
09.10.2016 07:42 9,5 C 91 % 1023,7 hPa 0,0 l/m 4,5 km/h (1 Bft) N-NW 331 0 min 0 W/m 8,1 C 9,5 C 12,9 km/h (3 Bft)
09.10.2016 07:45 9,5 C 91 % 1023,7 hPa 0,0 l/m 5,7 km/h (2 Bft) NW 321 0 min 0 W/m 8,1 C 9,5 C 12,9 km/h (3 Bft)
09.10.2016 07:48 9,5 C 91 % 1023,7 hPa 0,0 l/m 5,5 km/h (2 Bft) N-NW 336 0 min 0 W/m 8,1 C 9,5 C 12,9 km/h (3 Bft)
09.10.2016 07:51 9,5 C 91 % 1023,7 hPa 0,0 l/m 6,1 km/h (2 Bft) N-NO 13 0 min 0 W/m 8,1 C 9,5 C 12,9 km/h (3 Bft)
09.10.2016 07:54 9,5 C 91 % 1023,8 hPa 0,0 l/m 5,7 km/h (2 Bft) N-NW 334 0 min 0 W/m 8,1 C 9,5 C 9,7 km/h (2 Bft)
09.10.2016 07:57 9,5 C 91 % 1023,7 hPa 0,0 l/m 5,2 km/h (1 Bft) NW 325 0 min 5 W/m 8,1 C 9,5 C 11,3 km/h (2 Bft)
09.10.2016 08:00 9,5 C 91 % 1023,8 hPa 0,0 l/m 5,3 km/h (1 Bft) N 11 0 min 5 W/m 8,1 C 9,5 C 12,9 km/h (3 Bft)
09.10.2016 08:03 9,5 C 91 % 1023,7 hPa 0,0 l/m 5,9 km/h (2 Bft) N-NW 328 0 min 5 W/m 8,1 C 9,5 C 14,5 km/h (3 Bft)
09.10.2016 08:06 9,4 C 91 % 1023,7 hPa 0,0 l/m 4,9 km/h (1 Bft) N 355 0 min 5 W/m 8,0 C 9,4 C 12,9 km/h (3 Bft)
09.10.2016 08:09 9,5 C 91 % 1023,7 hPa 0,0 l/m 5,4 km/h (2 Bft) N-NW 343 0 min 5 W/m 8,1 C 9,5 C 12,9 km/h (3 Bft)
09.10.2016 08:12 9,4 C 92 % 1023,7 hPa 0,0 l/m 4,6 km/h (1 Bft) N 9 0 min 5 W/m 8,2 C 9,4 C 11,3 km/h (2 Bft)
09.10.2016 08:15 9,5 C 92 % 1023,7 hPa 0,0 l/m 5,8 km/h (2 Bft) N-NO 16 0 min 5 W/m 8,3 C 9,5 C 12,9 km/h (3 Bft)
09.10.2016 08:18 9,5 C 92 % 1023,7 hPa 0,0 l/m 6,2 km/h (2 Bft) W-NW 298 0 min 7 W/m 8,3 C 9,5 C 16,1 km/h (3 Bft)
09.10.2016 08:21 9,4 C 92 % 1023,8 hPa 0,0 l/m 7,9 km/h (2 Bft) NW 323 0 min 7 W/m 8,2 C 8,3 C 16,1 km/h (3 Bft)
09.10.2016 08:24 9,4 C 92 % 1023,8 hPa 0,0 l/m 5,1 km/h (1 Bft) NW 322 0 min 7 W/m 8,2 C 9,4 C 9,7 km/h (2 Bft)
09.10.2016 08:27 9,4 C 92 % 1023,8 hPa 0,0 l/m 5,0 km/h (1 Bft) N-NW 340 0 min 7 W/m 8,2 C 9,4 C 14,5 km/h (3 Bft)
09.10.2016 08:30 9,4 C 92 % 1023,8 hPa 0,0 l/m 7,5 km/h (2 Bft) NW 317 0 min 12 W/m 8,2 C 8,6 C 14,5 km/h (3 Bft)
09.10.2016 08:33 9,3 C 92 % 1023,8 hPa 0,0 l/m 5,1 km/h (1 Bft) N-NW 333 0 min 14 W/m 8,1 C 9,3 C 9,7 km/h (2 Bft)
09.10.2016 08:36 9,3 C 91 % 1023,8 hPa 0,0 l/m 4,3 km/h (1 Bft) N 355 0 min 12 W/m 7,9 C 9,3 C 9,7 km/h (2 Bft)
09.10.2016 08:39 9,3 C 91 % 1023,8 hPa 0,0 l/m 5,6 km/h (2 Bft) O-NO 67 0 min 12 W/m 7,9 C 9,3 C 14,5 km/h (3 Bft)
09.10.2016 08:42 9,3 C 91 % 1023,7 hPa 0,0 l/m 4,9 km/h (1 Bft) N-NO 21 0 min 16 W/m 7,9 C 9,3 C 11,3 km/h (2 Bft)
09.10.2016 08:45 9,3 C 91 % 1023,8 hPa 0,0 l/m 4,6 km/h (1 Bft) N-NO 30 0 min 19 W/m 7,9 C 9,3 C 9,7 km/h (2 Bft)
09.10.2016 08:48 9,3 C 91 % 1023,7 hPa 0,0 l/m 4,0 km/h (1 Bft) NW 326 0 min 23 W/m 7,9 C 9,3 C 8,0 km/h (2 Bft)
09.10.2016 08:51 9,2 C 91 % 1023,8 hPa 0,0 l/m 5,0 km/h (1 Bft) N 355 0 min 25 W/m 7,8 C 9,2 C 12,9 km/h (3 Bft)
09.10.2016 08:54 9,2 C 91 % 1023,7 hPa 0,0 l/m 4,8 km/h (1 Bft) NW 313 0 min 28 W/m 7,8 C 9,2 C 11,3 km/h (2 Bft)
09.10.2016 08:57 9,2 C 91 % 1023,7 hPa 0,0 l/m 5,7 km/h (2 Bft) N-NW 327 0 min 28 W/m 7,8 C 9,2 C 9,7 km/h (2 Bft)
09.10.2016 09:00 9,2 C 91 % 1023,8 hPa 0,0 l/m 4,6 km/h (1 Bft) N-NW 334 0 min 32 W/m 7,8 C 9,2 C 12,9 km/h (3 Bft)
09.10.2016 09:03 9,2 C 91 % 1023,8 hPa 0,0 l/m 7,0 km/h (2 Bft) NW 306 0 min 33 W/m 7,8 C 8,8 C 14,5 km/h (3 Bft)
09.10.2016 09:06 9,2 C 91 % 1023,8 hPa 0,0 l/m 3,8 km/h (1 Bft) N 355 0 min 37 W/m 7,8 C 9,2 C 8,0 km/h (2 Bft)
09.10.2016 09:09 9,2 C 91 % 1023,9 hPa 0,0 l/m 4,5 km/h (1 Bft) W 271 0 min 42 W/m 7,8 C 9,2 C 12,9 km/h (3 Bft)
09.10.2016 09:12 9,2 C 90 % 1023,9 hPa 0,0 l/m 5,1 km/h (1 Bft) N-NW 346 0 min 47 W/m 7,6 C 9,2 C 12,9 km/h (3 Bft)
09.10.2016 09:15 9,2 C 90 % 1023,9 hPa 0,0 l/m 5,5 km/h (2 Bft) N-NW 337 0 min 49 W/m 7,6 C 9,2 C 12,9 km/h (3 Bft)
09.10.2016 09:18 9,2 C 90 % 1023,9 hPa 0,0 l/m 5,5 km/h (2 Bft) W-NW 296 0 min 53 W/m 7,6 C 9,2 C 12,9 km/h (3 Bft)
09.10.2016 09:21 9,3 C 89 % 1023,9 hPa 0,0 l/m 5,8 km/h (2 Bft) N-NW 331 0 min 51 W/m 7,6 C 9,3 C 14,5 km/h (3 Bft)
09.10.2016 09:24 9,3 C 89 % 1023,9 hPa 0,0 l/m 6,7 km/h (2 Bft) NO 36 0 min 47 W/m 7,6 C 9,1 C 14,5 km/h (3 Bft)
09.10.2016 09:27 9,3 C 89 % 1023,9 hPa 0,0 l/m 6,9 km/h (2 Bft) N 5 0 min 49 W/m 7,6 C 8,9 C 16,1 km/h (3 Bft)
09.10.2016 09:30 9,3 C 89 % 1023,9 hPa 0,0 l/m 5,9 km/h (2 Bft) NW 313 0 min 51 W/m 7,6 C 9,3 C 14,5 km/h (3 Bft)
09.10.2016 09:33 9,3 C 89 % 1023,9 hPa 0,0 l/m 6,3 km/h (2 Bft) N-NW 337 0 min 56 W/m 7,6 C 9,3 C 14,5 km/h (3 Bft)
09.10.2016 09:36 9,3 C 89 % 1023,8 hPa 0,0 l/m 7,0 km/h (2 Bft) N-NO 13 0 min 62 W/m 7,6 C 8,9 C 20,9 km/h (4 Bft)
09.10.2016 09:39 9,3 C 89 % 1023,8 hPa 0,0 l/m 6,4 km/h (2 Bft) N 5 0 min 67 W/m 7,6 C 9,3 C 14,5 km/h (3 Bft)
09.10.2016 09:42 9,4 C 89 % 1023,9 hPa 0,0 l/m 4,9 km/h (1 Bft) N-NO 15 0 min 72 W/m 7,7 C 9,4 C 12,9 km/h (3 Bft)
09.10.2016 09:45 9,4 C 89 % 1023,8 hPa 0,0 l/m 7,2 km/h (2 Bft) N 350 0 min 74 W/m 7,7 C 8,8 C 17,7 km/h (3 Bft)
09.10.2016 09:48 9,4 C 89 % 1023,8 hPa 0,0 l/m 5,0 km/h (1 Bft) N-NW 343 0 min 72 W/m 7,7 C 9,4 C 12,9 km/h (3 Bft)
09.10.2016 09:51 9,3 C 89 % 1023,8 hPa 0,0 l/m 6,6 km/h (2 Bft) N-NW 332 0 min 70 W/m 7,6 C 9,2 C 12,9 km/h (3 Bft)
09.10.2016 09:54 9,3 C 88 % 1023,8 hPa 0,0 l/m 6,0 km/h (2 Bft) W-NW 298 0 min 69 W/m 7,4 C 9,3 C 12,9 km/h (3 Bft)
09.10.2016 09:57 9,3 C 88 % 1023,9 hPa 0,0 l/m 6,0 km/h (2 Bft) N-NW 348 0 min 72 W/m 7,4 C 9,3 C 14,5 km/h (3 Bft)
09.10.2016 10:00 9,3 C 88 % 1023,9 hPa 0,0 l/m 6,5 km/h (2 Bft) N-NO 24 0 min 81 W/m 7,4 C 9,3 C 12,9 km/h (3 Bft)
09.10.2016 10:03 9,4 C 89 % 1023,9 hPa 0,0 l/m 5,7 km/h (2 Bft) N 349 0 min 83 W/m 7,7 C 9,4 C 16,1 km/h (3 Bft)
09.10.2016 10:06 9,4 C 89 % 1023,9 hPa 0,0 l/m 5,7 km/h (2 Bft) N-NW 343 0 min 83 W/m 7,7 C 9,4 C 14,5 km/h (3 Bft)
09.10.2016 10:09 9,4 C 88 % 1023,8 hPa 0,0 l/m 6,8 km/h (2 Bft) N 5 0 min 84 W/m 7,5 C 9,1 C 12,9 km/h (3 Bft)
09.10.2016 10:12 9,4 C 88 % 1023,8 hPa 0,0 l/m 6,6 km/h (2 Bft) N-NW 344 0 min 93 W/m 7,5 C 9,3 C 12,9 km/h (3 Bft)
09.10.2016 10:15 9,4 C 88 % 1023,8 hPa 0,0 l/m 6,6 km/h (2 Bft) N 5 0 min 105 W/m 7,5 C 9,3 C 14,5 km/h (3 Bft)
09.10.2016 10:18 9,5 C 89 % 1023,8 hPa 0,0 l/m 5,5 km/h (2 Bft) N 5 0 min 121 W/m 7,8 C 9,5 C 12,9 km/h (3 Bft)
09.10.2016 10:21 9,6 C 89 % 1023,8 hPa 0,0 l/m 4,5 km/h (1 Bft) N-NW 327 0 min 128 W/m 7,9 C 9,6 C 11,3 km/h (2 Bft)
09.10.2016 10:24 9,7 C 88 % 1023,8 hPa 0,0 l/m 5,9 km/h (2 Bft) N-NW 347 0 min 128 W/m 7,8 C 9,7 C 9,7 km/h (2 Bft)
09.10.2016 10:27 9,7 C 88 % 1023,8 hPa 0,0 l/m 6,5 km/h (2 Bft) N-NW 340 0 min 125 W/m 7,8 C 9,7 C 16,1 km/h (3 Bft)
09.10.2016 10:30 9,7 C 88 % 1023,8 hPa 0,0 l/m 6,2 km/h (2 Bft) N-NW 342 0 min 128 W/m 7,8 C 9,7 C 17,7 km/h (3 Bft)
09.10.2016 10:33 9,6 C 87 % 1023,9 hPa 0,0 l/m 8,0 km/h (2 Bft) N 351 0 min 128 W/m 7,5 C 8,4 C 16,1 km/h (3 Bft)
09.10.2016 10:36 9,6 C 87 % 1023,9 hPa 0,0 l/m 8,4 km/h (2 Bft) N 350 0 min 123 W/m 7,5 C 8,2 C 19,3 km/h (3 Bft)
09.10.2016 10:39 9,6 C 86 % 1023,9 hPa 0,0 l/m 7,0 km/h (2 Bft) N-NO 33 0 min 116 W/m 7,4 C 9,2 C 14,5 km/h (3 Bft)
09.10.2016 10:42 9,6 C 86 % 1023,9 hPa 0,0 l/m 6,6 km/h (2 Bft) N 360 0 min 114 W/m 7,4 C 9,5 C 17,7 km/h (3 Bft)
09.10.2016 10:45 9,7 C 86 % 1023,9 hPa 0,0 l/m 7,8 km/h (2 Bft) N 355 0 min 111 W/m 7,5 C 8,7 C 16,1 km/h (3 Bft)
09.10.2016 10:48 9,7 C 86 % 1023,9 hPa 0,0 l/m 6,5 km/h (2 Bft) N 5 0 min 123 W/m 7,5 C 9,7 C 12,9 km/h (3 Bft)
09.10.2016 10:51 9,6 C 86 % 1023,9 hPa 0,0 l/m 6,5 km/h (2 Bft) NO 42 0 min 139 W/m 7,4 C 9,6 C 14,5 km/h (3 Bft)
09.10.2016 10:54 9,7 C 86 % 1023,9 hPa 0,0 l/m 6,2 km/h (2 Bft) N-NW 338 0 min 146 W/m 7,5 C 9,7 C 16,1 km/h (3 Bft)
09.10.2016 10:57 9,7 C 85 % 1023,9 hPa 0,0 l/m 4,3 km/h (1 Bft) N 5 0 min 146 W/m 7,3 C 9,7 C 14,5 km/h (3 Bft)
09.10.2016 11:00 9,8 C 85 % 1023,9 hPa 0,0 l/m 5,7 km/h (2 Bft) N-NW 331 0 min 137 W/m 7,4 C 9,8 C 14,5 km/h (3 Bft)
09.10.2016 11:03 9,9 C 85 % 1023,9 hPa 0,0 l/m 6,3 km/h (2 Bft) N 355 0 min 128 W/m 7,5 C 9,9 C 14,5 km/h (3 Bft)
09.10.2016 11:06 9,8 C 84 % 1023,9 hPa 0,0 l/m 6,1 km/h (2 Bft) N-NW 346 0 min 118 W/m 7,2 C 9,8 C 14,5 km/h (3 Bft)
09.10.2016 11:09 9,7 C 85 % 1023,9 hPa 0,0 l/m 5,6 km/h (2 Bft) W 267 0 min 125 W/m 7,3 C 9,7 C 12,9 km/h (3 Bft)
09.10.2016 11:12 9,8 C 85 % 1023,8 hPa 0,0 l/m 6,3 km/h (2 Bft) N 360 0 min 151 W/m 7,4 C 9,8 C 16,1 km/h (3 Bft)
09.10.2016 11:15 9,8 C 85 % 1023,8 hPa 0,0 l/m 7,3 km/h (2 Bft) W-NW 289 0 min 199 W/m 7,4 C 9,1 C 17,7 km/h (3 Bft)
09.10.2016 11:18 9,9 C 85 % 1023,9 hPa 0,0 l/m 5,1 km/h (1 Bft) N-NW 344 0 min 211 W/m 7,5 C 9,9 C 9,7 km/h (2 Bft)
09.10.2016 11:21 10,1 C 84 % 1023,9 hPa 0,0 l/m 6,7 km/h (2 Bft) NO 39 0 min 204 W/m 7,5 C 9,9 C 12,9 km/h (3 Bft)
09.10.2016 11:24 10,2 C 83 % 1023,9 hPa 0,0 l/m 5,5 km/h (2 Bft) N-NW 336 0 min 179 W/m 7,4 C 10,2 C 11,3 km/h (2 Bft)
09.10.2016 11:27 10,2 C 83 % 1023,9 hPa 0,0 l/m 5,8 km/h (2 Bft) N 355 0 min 163 W/m 7,4 C 10,2 C 14,5 km/h (3 Bft)
09.10.2016 11:30 10,2 C 83 % 1023,8 hPa 0,0 l/m 5,2 km/h (1 Bft) N-NW 332 0 min 160 W/m 7,4 C 10,2 C 12,9 km/h (3 Bft)
09.10.2016 11:33 10,1 C 83 % 1023,8 hPa 0,0 l/m 5,0 km/h (1 Bft) NO 40 0 min 155 W/m 7,3 C 10,1 C 9,7 km/h (2 Bft)
09.10.2016 11:36 10,0 C 83 % 1023,9 hPa 0,0 l/m 7,0 km/h (2 Bft) N-NW 342 0 min 153 W/m 7,2 C 9,6 C 14,5 km/h (3 Bft)
09.10.2016 11:39 9,9 C 83 % 1023,8 hPa 0,0 l/m 5,1 km/h (1 Bft) W-NW 301 0 min 148 W/m 7,2 C 9,9 C 12,9 km/h (3 Bft)
09.10.2016 11:42 9,8 C 84 % 1023,8 hPa 0,0 l/m 6,1 km/h (2 Bft) N 360 0 min 139 W/m 7,2 C 9,8 C 12,9 km/h (3 Bft)
09.10.2016 11:45 9,9 C 84 % 1023,8 hPa 0,0 l/m 4,5 km/h (1 Bft) N-NO 16 0 min 130 W/m 7,3 C 9,9 C 14,5 km/h (3 Bft)
09.10.2016 11:48 9,9 C 85 % 1023,8 hPa 0,0 l/m 5,7 km/h (2 Bft) NO 40 0 min 132 W/m 7,5 C 9,9 C 17,7 km/h (3 Bft)
09.10.2016 11:51 9,8 C 84 % 1023,7 hPa 0,0 l/m 6,5 km/h (2 Bft) N 5 0 min 134 W/m 7,2 C 9,8 C 14,5 km/h (3 Bft)
09.10.2016 11:54 9,8 C 84 % 1023,8 hPa 0,0 l/m 5,1 km/h (1 Bft) N-NW 340 0 min 130 W/m 7,2 C 9,8 C 14,5 km/h (3 Bft)
09.10.2016 11:57 9,8 C 84 % 1023,7 hPa 0,0 l/m 6,1 km/h (2 Bft) N-NW 340 0 min 123 W/m 7,2 C 9,8 C 12,9 km/h (3 Bft)
09.10.2016 12:00 9,7 C 84 % 1023,8 hPa 0,0 l/m 4,0 km/h (1 Bft) N 349 0 min 123 W/m 7,1 C 9,7 C 8,0 km/h (2 Bft)
09.10.2016 12:03 9,7 C 84 % 1023,8 hPa 0,0 l/m 5,4 km/h (2 Bft) N 351 0 min 118 W/m 7,1 C 9,7 C 16,1 km/h (3 Bft)
09.10.2016 12:06 9,6 C 83 % 1023,7 hPa 0,0 l/m 5,4 km/h (2 Bft) N 350 0 min 121 W/m 6,9 C 9,6 C 14,5 km/h (3 Bft)
09.10.2016 12:09 9,6 C 84 % 1023,7 hPa 0,0 l/m 4,4 km/h (1 Bft) NW 314 0 min 135 W/m 7,0 C 9,6 C 12,9 km/h (3 Bft)
09.10.2016 12:12 9,7 C 84 % 1023,7 hPa 0,0 l/m 4,9 km/h (1 Bft) N-NO 24 0 min 149 W/m 7,1 C 9,7 C 11,3 km/h (2 Bft)
09.10.2016 12:15 10,0 C 86 % 1023,7 hPa 0,0 l/m 3,6 km/h (1 Bft) N-NW 343 0 min 148 W/m 7,8 C 10,0 C 12,9 km/h (3 Bft)
09.10.2016 12:18 9,9 C 83 % 1023,7 hPa 0,0 l/m 5,0 km/h (1 Bft) N-NW 337 0 min 137 W/m 7,2 C 9,9 C 8,0 km/h (2 Bft)
09.10.2016 12:21 9,9 C 84 % 1023,7 hPa 0,0 l/m 5,4 km/h (2 Bft) N 360 0 min 121 W/m 7,3 C 9,9 C 9,7 km/h (2 Bft)
09.10.2016 12:24 9,8 C 83 % 1023,7 hPa 0,0 l/m 6,0 km/h (2 Bft) N-NO 16 0 min 111 W/m 7,1 C 9,8 C 12,9 km/h (3 Bft)
09.10.2016 12:27 9,7 C 83 % 1023,8 hPa 0,0 l/m 5,3 km/h (1 Bft) W-NW 299 0 min 84 W/m 7,0 C 9,7 C 14,5 km/h (3 Bft)
09.10.2016 12:30 9,7 C 85 % 1023,8 hPa 0,0 l/m 3,9 km/h (1 Bft) NW 319 0 min 86 W/m 7,3 C 9,7 C 8,0 km/h (2 Bft)
09.10.2016 12:33 9,7 C 85 % 1023,8 hPa 0,0 l/m 5,2 km/h (1 Bft) N 355 0 min 72 W/m 7,3 C 9,7 C 9,7 km/h (2 Bft)
09.10.2016 12:36 9,5 C 85 % 1023,8 hPa 0,0 l/m 5,7 km/h (2 Bft) NO 46 0 min 62 W/m 7,1 C 9,5 C 12,9 km/h (3 Bft)
09.10.2016 12:39 9,4 C 86 % 1023,8 hPa 0,0 l/m 6,2 km/h (2 Bft) N 355 0 min 62 W/m 7,2 C 9,4 C 12,9 km/h (3 Bft)
09.10.2016 12:42 9,4 C 87 % 1023,8 hPa 0,0 l/m 3,2 km/h (1 Bft) N 360 0 min 83 W/m 7,3 C 9,4 C 8,0 km/h (2 Bft)
09.10.2016 12:45 9,4 C 87 % 1023,7 hPa 0,0 l/m 4,0 km/h (1 Bft) N-NW 338 0 min 95 W/m 7,3 C 9,4 C 11,3 km/h (2 Bft)
09.10.2016 12:48 9,3 C 86 % 1023,7 hPa 0,0 l/m 4,9 km/h (1 Bft) N-NO 12 0 min 111 W/m 7,1 C 9,3 C 8,0 km/h (2 Bft)
09.10.2016 12:51 9,4 C 86 % 1023,7 hPa 0,0 l/m 3,5 km/h (1 Bft) N 360 0 min 137 W/m 7,2 C 9,4 C 6,4 km/h (2 Bft)
09.10.2016 12:54 9,4 C 86 % 1023,7 hPa 0,0 l/m 6,3 km/h (2 Bft) N-NO 28 0 min 125 W/m 7,2 C 9,4 C 14,5 km/h (3 Bft)
09.10.2016 12:57 9,4 C 86 % 1023,7 hPa 0,0 l/m 5,3 km/h (1 Bft) N 360 0 min 114 W/m 7,2 C 9,4 C 12,9 km/h (3 Bft)
09.10.2016 13:00 9,6 C 86 % 1023,7 hPa 0,0 l/m 2,7 km/h (1 Bft) N-NW 343 0 min 113 W/m 7,4 C 9,6 C 4,8 km/h (1 Bft)
09.10.2016 13:03 9,7 C 86 % 1023,7 hPa 0,0 l/m 2,9 km/h (1 Bft) N-NO 18 0 min 118 W/m 7,5 C 9,7 C 8,0 km/h (2 Bft)
09.10.2016 13:06 9,6 C 86 % 1023,7 hPa 0,0 l/m 3,7 km/h (1 Bft) N-NW 336 0 min 130 W/m 7,4 C 9,6 C 6,4 km/h (2 Bft)
09.10.2016 13:09 9,7 C 87 % 1023,6 hPa 0,0 l/m 3,6 km/h (1 Bft) N 355 0 min 148 W/m 7,6 C 9,7 C 9,7 km/h (2 Bft)
09.10.2016 13:12 9,8 C 86 % 1023,6 hPa 0,0 l/m 5,0 km/h (1 Bft) N-NW 331 0 min 174 W/m 7,6 C 9,8 C 12,9 km/h (3 Bft)
09.10.2016 13:15 9,8 C 85 % 1023,6 hPa 0,0 l/m 4,5 km/h (1 Bft) N 5 0 min 193 W/m 7,4 C 9,8 C 8,0 km/h (2 Bft)
09.10.2016 13:18 9,9 C 85 % 1023,5 hPa 0,0 l/m 3,4 km/h (1 Bft) N 355 0 min 195 W/m 7,5 C 9,9 C 8,0 km/h (2 Bft)
09.10.2016 13:21 9,9 C 84 % 1023,5 hPa 0,0 l/m 3,8 km/h (1 Bft) N-NW 345 0 min 190 W/m 7,3 C 9,9 C 6,4 km/h (2 Bft)
09.10.2016 13:24 9,9 C 85 % 1023,5 hPa 0,0 l/m 3,8 km/h (1 Bft) N-NW 341 0 min 192 W/m 7,5 C 9,9 C 6,4 km/h (2 Bft)
09.10.2016 13:27 10,0 C 84 % 1023,4 hPa 0,0 l/m 4,3 km/h (1 Bft) N 350 0 min 230 W/m 7,4 C 10,0 C 8,0 km/h (2 Bft)
09.10.2016 13:30 10,2 C 84 % 1023,5 hPa 0,0 l/m 4,7 km/h (1 Bft) N-NW 345 0 min 230 W/m 7,6 C 10,2 C 11,3 km/h (2 Bft)
09.10.2016 13:33 10,3 C 83 % 1023,4 hPa 0,0 l/m 2,8 km/h (1 Bft) N-NW 344 0 min 223 W/m 7,5 C 10,3 C 4,8 km/h (1 Bft)
09.10.2016 13:36 10,3 C 83 % 1023,4 hPa 0,0 l/m 4,3 km/h (1 Bft) N-NO 19 0 min 206 W/m 7,5 C 10,3 C 8,0 km/h (2 Bft)
09.10.2016 13:39 10,3 C 83 % 1023,4 hPa 0,0 l/m 3,9 km/h (1 Bft) N-NW 337 0 min 169 W/m 7,5 C 10,3 C 9,7 km/h (2 Bft)
09.10.2016 13:42 10,4 C 83 % 1023,4 hPa 0,0 l/m 3,0 km/h (1 Bft) N 5 0 min 128 W/m 7,6 C 10,4 C 6,4 km/h (2 Bft)
09.10.2016 13:45 10,3 C 82 % 1023,4 hPa 0,0 l/m 4,4 km/h (1 Bft) W-NW 303 0 min 139 W/m 7,4 C 10,3 C 8,0 km/h (2 Bft)
09.10.2016 13:48 10,1 C 83 % 1023,4 hPa 0,0 l/m 3,8 km/h (1 Bft) NW 316 0 min 169 W/m 7,3 C 10,1 C 8,0 km/h (2 Bft)
09.10.2016 13:51 10,2 C 84 % 1023,3 hPa 0,0 l/m 2,1 km/h (1 Bft) NW 316 0 min 179 W/m 7,6 C 10,2 C 4,8 km/h (1 Bft)
09.10.2016 13:54 10,4 C 85 % 1023,3 hPa 0,0 l/m 1,7 km/h (1 Bft) NW 323 0 min 190 W/m 8,0 C 10,4 C 4,8 km/h (1 Bft)
09.10.2016 13:57 10,3 C 83 % 1023,3 hPa 0,0 l/m 4,3 km/h (1 Bft) N 351 0 min 179 W/m 7,5 C 10,3 C 14,5 km/h (3 Bft)
09.10.2016 14:00 10,3 C 83 % 1023,3 hPa 0,0 l/m 3,3 km/h (1 Bft) N-NO 17 0 min 156 W/m 7,5 C 10,3 C 6,4 km/h (2 Bft)
09.10.2016 14:03 10,4 C 84 % 1023,3 hPa 0,0 l/m 2,6 km/h (1 Bft) N-NW 340 0 min 146 W/m 7,8 C 10,4 C 4,8 km/h (1 Bft)
09.10.2016 14:06 10,4 C 84 % 1023,3 hPa 0,0 l/m 2,7 km/h (1 Bft) N-NO 17 0 min 151 W/m 7,8 C 10,4 C 6,4 km/h (2 Bft)
09.10.2016 14:09 10,3 C 83 % 1023,3 hPa 0,0 l/m 3,9 km/h (1 Bft) N 350 0 min 148 W/m 7,5 C 10,3 C 6,4 km/h (2 Bft)
09.10.2016 14:12 10,2 C 83 % 1023,3 hPa 0,0 l/m 4,4 km/h (1 Bft) N-NW 329 0 min 178 W/m 7,4 C 10,2 C 8,0 km/h (2 Bft)
09.10.2016 14:15 10,1 C 83 % 1023,3 hPa 0,0 l/m 4,4 km/h (1 Bft) N 355 0 min 163 W/m 7,3 C 10,1 C 8,0 km/h (2 Bft)
09.10.2016 14:18 9,9 C 82 % 1023,2 hPa 0,0 l/m 4,0 km/h (1 Bft) N-NW 343 0 min 142 W/m 7,0 C 9,9 C 9,7 km/h (2 Bft)
09.10.2016 14:21 10,1 C 84 % 1023,2 hPa 0,0 l/m 3,3 km/h (1 Bft) N 5 0 min 130 W/m 7,5 C 10,1 C 8,0 km/h (2 Bft)
09.10.2016 14:24 10,0 C 84 % 1023,2 hPa 0,0 l/m 2,3 km/h (1 Bft) N 349 0 min 114 W/m 7,4 C 10,0 C 4,8 km/h (1 Bft)
09.10.2016 14:27 10,0 C 84 % 1023,2 hPa 0,0 l/m 2,8 km/h (1 Bft) NW 313 0 min 104 W/m 7,4 C 10,0 C 6,4 km/h (2 Bft)
09.10.2016 14:30 10,0 C 84 % 1023,2 hPa 0,0 l/m 3,6 km/h (1 Bft) N 349 0 min 105 W/m 7,4 C 10,0 C 6,4 km/h (2 Bft)
09.10.2016 14:33 10,0 C 85 % 1023,2 hPa 0,0 l/m 3,1 km/h (1 Bft) N 5 0 min 120 W/m 7,6 C 10,0 C 6,4 km/h (2 Bft)
09.10.2016 14:36 10,0 C 84 % 1023,1 hPa 0,0 l/m 3,1 km/h (1 Bft) N 351 0 min 118 W/m 7,4 C 10,0 C 6,4 km/h (2 Bft)
09.10.2016 14:39 10,0 C 84 % 1023,1 hPa 0,0 l/m 2,1 km/h (1 Bft) N-NO 17 0 min 113 W/m 7,4 C 10,0 C 4,8 km/h (1 Bft)
09.10.2016 14:42 9,9 C 84 % 1023,1 hPa 0,0 l/m 3,6 km/h (1 Bft) NW 323 0 min 132 W/m 7,3 C 9,9 C 4,8 km/h (1 Bft)
09.10.2016 14:45 9,9 C 84 % 1023,1 hPa 0,0 l/m 2,5 km/h (1 Bft) N-NW 343 0 min 139 W/m 7,3 C 9,9 C 4,8 km/h (1 Bft)
09.10.2016 14:48 10,1 C 85 % 1023,1 hPa 0,0 l/m 2,7 km/h (1 Bft) N-NW 346 0 min 137 W/m 7,7 C 10,1 C 6,4 km/h (2 Bft)
09.10.2016 14:51 10,1 C 83 % 1023,1 hPa 0,0 l/m 3,7 km/h (1 Bft) N-NW 348 0 min 156 W/m 7,3 C 10,1 C 6,4 km/h (2 Bft)
09.10.2016 14:54 10,2 C 85 % 1023,0 hPa 0,0 l/m 3,2 km/h (1 Bft) N 5 0 min 162 W/m 7,8 C 10,2 C 6,4 km/h (2 Bft)
09.10.2016 14:57 10,3 C 84 % 1023,0 hPa 0,0 l/m 3,0 km/h (1 Bft) N-NW 346 0 min 132 W/m 7,7 C 10,3 C 4,8 km/h (1 Bft)
09.10.2016 15:00 10,4 C 83 % 1023,0 hPa 0,0 l/m 1,7 km/h (1 Bft) N-NW 348 0 min 118 W/m 7,6 C 10,4 C 6,4 km/h (2 Bft)
09.10.2016 15:03 10,3 C 84 % 1023,1 hPa 0,0 l/m 1,8 km/h (1 Bft) N-NW 344 0 min 95 W/m 7,7 C 10,3 C 3,2 km/h (1 Bft)
09.10.2016 15:06 10,1 C 82 % 1023,1 hPa 0,0 l/m 4,2 km/h (1 Bft) N-NO 13 0 min 84 W/m 7,2 C 10,1 C 9,7 km/h (2 Bft)
09.10.2016 15:09 10,0 C 83 % 1023,1 hPa 0,0 l/m 3,5 km/h (1 Bft) NW 317 0 min 88 W/m 7,2 C 10,0 C 8,0 km/h (2 Bft)
09.10.2016 15:12 10,1 C 84 % 1023,1 hPa 0,0 l/m 3,8 km/h (1 Bft) NW 323 0 min 104 W/m 7,5 C 10,1 C 9,7 km/h (2 Bft)
09.10.2016 15:15 10,1 C 84 % 1023,1 hPa 0,0 l/m 3,1 km/h (1 Bft) NW 325 0 min 172 W/m 7,5 C 10,1 C 4,8 km/h (1 Bft)
09.10.2016 15:18 10,3 C 85 % 1023,1 hPa 0,0 l/m 2,5 km/h (1 Bft) N-NW 345 0 min 202 W/m 7,9 C 10,3 C 6,4 km/h (2 Bft)
09.10.2016 15:21 10,4 C 83 % 1023,0 hPa 0,0 l/m 3,4 km/h (1 Bft) N-NW 341 3 min 234 W/m 7,6 C 10,4 C 8,0 km/h (2 Bft)
09.10.2016 15:24 10,7 C 82 % 1023,1 hPa 0,0 l/m 3,2 km/h (1 Bft) N 5 3 min 223 W/m 7,8 C 10,7 C 6,4 km/h (2 Bft)
09.10.2016 15:27 10,7 C 83 % 1023,0 hPa 0,0 l/m 3,2 km/h (1 Bft) NW 322 0 min 193 W/m 7,9 C 10,7 C 8,0 km/h (2 Bft)
09.10.2016 15:30 10,8 C 81 % 1023,0 hPa 0,0 l/m 3,6 km/h (1 Bft) NW 315 0 min 185 W/m 7,7 C 10,8 C 8,0 km/h (2 Bft)
09.10.2016 15:33 10,8 C 82 % 1023,0 hPa 0,0 l/m 4,4 km/h (1 Bft) NW 325 0 min 172 W/m 7,9 C 10,8 C 9,7 km/h (2 Bft)
09.10.2016 15:36 10,5 C 79 % 1023,0 hPa 0,0 l/m 5,7 km/h (2 Bft) N-NW 333 3 min 213 W/m 7,0 C 10,5 C 9,7 km/h (2 Bft)
09.10.2016 15:39 10,6 C 81 % 1023,0 hPa 0,0 l/m 4,3 km/h (1 Bft) N-NW 335 3 min 227 W/m 7,5 C 10,6 C 8,0 km/h (2 Bft)
09.10.2016 15:42 10,8 C 81 % 1023,0 hPa 0,0 l/m 4,1 km/h (1 Bft) N 5 0 min 160 W/m 7,7 C 10,8 C 8,0 km/h (2 Bft)
09.10.2016 15:45 10,6 C 80 % 1023,0 hPa 0,0 l/m 4,2 km/h (1 Bft) NW 315 0 min 142 W/m 7,3 C 10,6 C 8,0 km/h (2 Bft)
09.10.2016 15:48 10,6 C 81 % 1022,9 hPa 0,0 l/m 4,3 km/h (1 Bft) NW 319 0 min 135 W/m 7,5 C 10,6 C 8,0 km/h (2 Bft)
09.10.2016 15:51 10,4 C 80 % 1023,0 hPa 0,0 l/m 3,6 km/h (1 Bft) N-NW 347 0 min 142 W/m 7,1 C 10,4 C 8,0 km/h (2 Bft)
09.10.2016 15:54 10,4 C 82 % 1023,0 hPa 0,0 l/m 3,0 km/h (1 Bft) N 5 0 min 130 W/m 7,5 C 10,4 C 6,4 km/h (2 Bft)
09.10.2016 15:57 10,5 C 84 % 1023,0 hPa 0,0 l/m 3,6 km/h (1 Bft) N-NW 335 0 min 109 W/m 7,9 C 10,5 C 6,4 km/h (2 Bft)
09.10.2016 16:00 10,4 C 82 % 1023,0 hPa 0,0 l/m 3,2 km/h (1 Bft) N 360 0 min 100 W/m 7,5 C 10,4 C 8,0 km/h (2 Bft)
09.10.2016 16:03 10,3 C 83 % 1023,0 hPa 0,0 l/m 2,2 km/h (1 Bft) NW 325 0 min 74 W/m 7,5 C 10,3 C 4,8 km/h (1 Bft)
09.10.2016 16:06 10,3 C 83 % 1023,0 hPa 0,0 l/m 2,5 km/h (1 Bft) NW 323 0 min 72 W/m 7,5 C 10,3 C 4,8 km/h (1 Bft)
09.10.2016 16:09 10,2 C 82 % 1023,0 hPa 0,0 l/m 3,2 km/h (1 Bft) NW 320 0 min 56 W/m 7,3 C 10,2 C 6,4 km/h (2 Bft)
09.10.2016 16:12 10,1 C 84 % 1022,9 hPa 0,0 l/m 3,1 km/h (1 Bft) N-NW 338 0 min 51 W/m 7,5 C 10,1 C 6,4 km/h (2 Bft)
09.10.2016 16:15 10,1 C 85 % 1022,9 hPa 0,0 l/m 1,8 km/h (1 Bft) N-NW 331 0 min 58 W/m 7,7 C 10,1 C 4,8 km/h (1 Bft)
09.10.2016 16:18 10,1 C 86 % 1022,9 hPa 0,0 l/m 0,4 km/h (0 Bft) N-NW 331 0 min 65 W/m 7,9 C 10,1 C 1,6 km/h (1 Bft)
09.10.2016 16:21 10,1 C 85 % 1022,9 hPa 0,0 l/m 2,9 km/h (1 Bft) N-NW 331 0 min 65 W/m 7,7 C 10,1 C 8,0 km/h (2 Bft)
09.10.2016 16:24 10,0 C 84 % 1022,9 hPa 0,0 l/m 3,3 km/h (1 Bft) NW 312 0 min 56 W/m 7,4 C 10,0 C 8,0 km/h (2 Bft)
09.10.2016 16:27 10,0 C 85 % 1022,9 hPa 0,0 l/m 2,7 km/h (1 Bft) N-NW 342 0 min 77 W/m 7,6 C 10,0 C 8,0 km/h (2 Bft)
09.10.2016 16:30 9,9 C 85 % 1022,9 hPa 0,0 l/m 2,4 km/h (1 Bft) N 5 0 min 98 W/m 7,5 C 9,9 C 4,8 km/h (1 Bft)
09.10.2016 16:33 9,9 C 84 % 1022,9 hPa 0,0 l/m 3,2 km/h (1 Bft) N-NO 28 0 min 105 W/m 7,3 C 9,9 C 6,4 km/h (2 Bft)
09.10.2016 16:36 9,9 C 83 % 1022,9 hPa 0,0 l/m 3,8 km/h (1 Bft) N-NO 18 0 min 98 W/m 7,2 C 9,9 C 11,3 km/h (2 Bft)
09.10.2016 16:39 9,9 C 83 % 1022,9 hPa 0,0 l/m 3,8 km/h (1 Bft) N 349 0 min 91 W/m 7,2 C 9,9 C 9,7 km/h (2 Bft)
09.10.2016 16:42 10,1 C 83 % 1022,9 hPa 0,0 l/m 3,2 km/h (1 Bft) N-NW 346 0 min 95 W/m 7,3 C 10,1 C 8,0 km/h (2 Bft)
09.10.2016 16:45 10,1 C 82 % 1022,9 hPa 0,0 l/m 2,7 km/h (1 Bft) N-NW 331 0 min 91 W/m 7,2 C 10,1 C 6,4 km/h (2 Bft)
09.10.2016 16:48 10,1 C 82 % 1022,9 hPa 0,0 l/m 4,3 km/h (1 Bft) N-NW 327 0 min 84 W/m 7,2 C 10,1 C 9,7 km/h (2 Bft)
09.10.2016 16:51 10,0 C 81 % 1022,9 hPa 0,0 l/m 3,6 km/h (1 Bft) N-NW 338 0 min 79 W/m 6,9 C 10,0 C 8,0 km/h (2 Bft)
09.10.2016 16:54 10,0 C 82 % 1022,9 hPa 0,0 l/m 3,5 km/h (1 Bft) N 350 0 min 76 W/m 7,1 C 10,0 C 8,0 km/h (2 Bft)
09.10.2016 16:57 10,0 C 83 % 1022,9 hPa 0,0 l/m 3,0 km/h (1 Bft) N-NW 328 0 min 76 W/m 7,2 C 10,0 C 6,4 km/h (2 Bft)
09.10.2016 17:00 10,0 C 83 % 1022,9 hPa 0,0 l/m 3,0 km/h (1 Bft) N-NW 348 0 min 86 W/m 7,2 C 10,0 C 6,4 km/h (2 Bft)
09.10.2016 17:03 10,0 C 84 % 1022,9 hPa 0,0 l/m 2,8 km/h (1 Bft) N-NW 343 0 min 77 W/m 7,4 C 10,0 C 6,4 km/h (2 Bft)
09.10.2016 17:06 10,0 C 82 % 1022,8 hPa 0,0 l/m 3,2 km/h (1 Bft) N-NW 333 0 min 70 W/m 7,1 C 10,0 C 6,4 km/h (2 Bft)
09.10.2016 17:09 9,9 C 82 % 1022,8 hPa 0,0 l/m 2,6 km/h (1 Bft) NW 315 0 min 83 W/m 7,0 C 9,9 C 8,0 km/h (2 Bft)
09.10.2016 17:12 9,9 C 81 % 1022,8 hPa 0,0 l/m 3,4 km/h (1 Bft) N-NW 329 0 min 84 W/m 6,8 C 9,9 C 6,4 km/h (2 Bft)
09.10.2016 17:15 10,0 C 82 % 1022,8 hPa 0,0 l/m 4,1 km/h (1 Bft) N-NW 330 0 min 74 W/m 7,1 C 10,0 C 8,0 km/h (2 Bft)
09.10.2016 17:18 10,0 C 82 % 1022,8 hPa 0,0 l/m 4,5 km/h (1 Bft) N 350 0 min 56 W/m 7,1 C 10,0 C 9,7 km/h (2 Bft)
09.10.2016 17:21 9,9 C 82 % 1022,8 hPa 0,0 l/m 3,4 km/h (1 Bft) N-NW 331 0 min 47 W/m 7,0 C 9,9 C 6,4 km/h (2 Bft)
09.10.2016 17:24 9,9 C 83 % 1022,8 hPa 0,0 l/m 3,3 km/h (1 Bft) N-NW 332 0 min 35 W/m 7,2 C 9,9 C 4,8 km/h (1 Bft)
09.10.2016 17:27 9,9 C 83 % 1022,8 hPa 0,0 l/m 2,0 km/h (1 Bft) N 351 0 min 32 W/m 7,2 C 9,9 C 4,8 km/h (1 Bft)
09.10.2016 17:30 9,8 C 83 % 1022,8 hPa 0,0 l/m 4,0 km/h (1 Bft) N-NW 327 0 min 32 W/m 7,1 C 9,8 C 8,0 km/h (2 Bft)
09.10.2016 17:33 9,8 C 83 % 1022,8 hPa 0,0 l/m 3,5 km/h (1 Bft) N 11 0 min 32 W/m 7,1 C 9,8 C 8,0 km/h (2 Bft)
09.10.2016 17:36 9,8 C 84 % 1022,7 hPa 0,0 l/m 2,9 km/h (1 Bft) N 349 0 min 28 W/m 7,2 C 9,8 C 6,4 km/h (2 Bft)
09.10.2016 17:39 9,7 C 83 % 1022,7 hPa 0,0 l/m 4,6 km/h (1 Bft) N 350 0 min 23 W/m 7,0 C 9,7 C 8,0 km/h (2 Bft)
09.10.2016 17:42 9,7 C 84 % 1022,8 hPa 0,0 l/m 1,8 km/h (1 Bft) N 350 0 min 23 W/m 7,1 C 9,7 C 6,4 km/h (2 Bft)
09.10.2016 17:45 9,7 C 84 % 1022,7 hPa 0,0 l/m 2,7 km/h (1 Bft) N 350 0 min 25 W/m 7,1 C 9,7 C 6,4 km/h (2 Bft)
09.10.2016 17:48 9,7 C 84 % 1022,8 hPa 0,0 l/m 2,6 km/h (1 Bft) N-NW 337 0 min 23 W/m 7,1 C 9,7 C 6,4 km/h (2 Bft)
09.10.2016 17:51 9,7 C 85 % 1022,7 hPa 0,0 l/m 2,7 km/h (1 Bft) N 350 0 min 21 W/m 7,3 C 9,7 C 8,0 km/h (2 Bft)
09.10.2016 17:54 9,6 C 85 % 1022,8 hPa 0,0 l/m 1,4 km/h (1 Bft) N 351 0 min 19 W/m 7,2 C 9,6 C 4,8 km/h (1 Bft)
09.10.2016 17:57 9,6 C 85 % 1022,7 hPa 0,0 l/m 1,2 km/h (1 Bft) NW 317 0 min 16 W/m 7,2 C 9,6 C 3,2 km/h (1 Bft)
09.10.2016 18:00 9,5 C 85 % 1022,8 hPa 0,0 l/m 1,3 km/h (1 Bft) NW 317 0 min 12 W/m 7,1 C 9,5 C 3,2 km/h (1 Bft)
09.10.2016 18:03 9,5 C 86 % 1022,8 hPa 0,0 l/m 2,0 km/h (1 Bft) N-NW 327 0 min 11 W/m 7,3 C 9,5 C 4,8 km/h (1 Bft)
09.10.2016 18:06 9,4 C 86 % 1022,7 hPa 0,0 l/m 1,8 km/h (1 Bft) N-NW 331 0 min 9 W/m 7,2 C 9,4 C 3,2 km/h (1 Bft)
09.10.2016 18:09 9,4 C 85 % 1022,8 hPa 0,0 l/m 1,9 km/h (1 Bft) N 355 0 min 7 W/m 7,0 C 9,4 C 4,8 km/h (1 Bft)
09.10.2016 18:12 9,4 C 85 % 1022,7 hPa 0,0 l/m 1,8 km/h (1 Bft) N 355 0 min 5 W/m 7,0 C 9,4 C 4,8 km/h (1 Bft)
09.10.2016 18:15 9,4 C 86 % 1022,8 hPa 0,0 l/m 2,5 km/h (1 Bft) N-NO 12 0 min 0 W/m 7,2 C 9,4 C 6,4 km/h (2 Bft)
09.10.2016 18:18 9,3 C 86 % 1022,8 hPa 0,0 l/m 1,1 km/h (1 Bft) N 11 0 min 0 W/m 7,1 C 9,3 C 6,4 km/h (2 Bft)
09.10.2016 18:21 9,3 C 87 % 1022,8 hPa 0,0 l/m 2,3 km/h (1 Bft) N 355 0 min 0 W/m 7,2 C 9,3 C 6,4 km/h (2 Bft)
09.10.2016 18:24 9,3 C 86 % 1022,8 hPa 0,0 l/m 3,2 km/h (1 Bft) N 350 0 min 0 W/m 7,1 C 9,3 C 4,8 km/h (1 Bft)
09.10.2016 18:27 9,3 C 86 % 1022,8 hPa 0,0 l/m 3,4 km/h (1 Bft) NW 319 0 min 0 W/m 7,1 C 9,3 C 8,0 km/h (2 Bft)
09.10.2016 18:30 9,3 C 86 % 1022,8 hPa 0,0 l/m 3,5 km/h (1 Bft) N-NW 344 0 min 0 W/m 7,1 C 9,3 C 8,0 km/h (2 Bft)
09.10.2016 18:33 9,3 C 86 % 1022,8 hPa 0,0 l/m 4,1 km/h (1 Bft) N-NO 17 0 min 0 W/m 7,1 C 9,3 C 8,0 km/h (2 Bft)
09.10.2016 18:36 9,3 C 86 % 1022,9 hPa 0,0 l/m 2,7 km/h (1 Bft) N-NW 344 0 min 0 W/m 7,1 C 9,3 C 6,4 km/h (2 Bft)
09.10.2016 18:39 9,3 C 86 % 1022,9 hPa 0,0 l/m 1,5 km/h (1 Bft) N-NW 343 0 min 0 W/m 7,1 C 9,3 C 4,8 km/h (1 Bft)
09.10.2016 18:42 9,2 C 86 % 1022,9 hPa 0,0 l/m 2,0 km/h (1 Bft) N 5 0 min 0 W/m 7,0 C 9,2 C 6,4 km/h (2 Bft)
09.10.2016 18:45 9,2 C 86 % 1022,9 hPa 0,0 l/m 2,8 km/h (1 Bft) N 360 0 min 0 W/m 7,0 C 9,2 C 6,4 km/h (2 Bft)
09.10.2016 18:48 9,2 C 86 % 1022,9 hPa 0,0 l/m 2,3 km/h (1 Bft) N 350 0 min 0 W/m 7,0 C 9,2 C 8,0 km/h (2 Bft)
09.10.2016 18:51 9,2 C 86 % 1022,9 hPa 0,0 l/m 2,3 km/h (1 Bft) N 351 0 min 0 W/m 7,0 C 9,2 C 4,8 km/h (1 Bft)
09.10.2016 18:54 9,2 C 87 % 1023,0 hPa 0,0 l/m 2,9 km/h (1 Bft) N-NW 338 0 min 0 W/m 7,2 C 9,2 C 4,8 km/h (1 Bft)
09.10.2016 18:57 9,2 C 88 % 1023,0 hPa 0,0 l/m 0,5 km/h (0 Bft) N-NW 338 0 min 0 W/m 7,3 C 9,2 C 1,6 km/h (1 Bft)
09.10.2016 19:00 9,2 C 88 % 1023,0 hPa 0,0 l/m 0,8 km/h (0 Bft) N-NW 338 0 min 0 W/m 7,3 C 9,2 C 3,2 km/h (1 Bft)
09.10.2016 19:03 9,2 C 89 % 1023,0 hPa 0,0 l/m 1,5 km/h (1 Bft) N-NW 338 0 min 0 W/m 7,5 C 9,2 C 4,8 km/h (1 Bft)
09.10.2016 19:06 9,1 C 89 % 1023,0 hPa 0,0 l/m 1,7 km/h (1 Bft) N-NW 327 0 min 0 W/m 7,4 C 9,1 C 4,8 km/h (1 Bft)
09.10.2016 19:09 9,1 C 89 % 1023,0 hPa 0,0 l/m 1,9 km/h (1 Bft) N-NW 331 0 min 0 W/m 7,4 C 9,1 C 3,2 km/h (1 Bft)
09.10.2016 19:12 9,1 C 89 % 1023,0 hPa 0,0 l/m 2,0 km/h (1 Bft) N 5 0 min 0 W/m 7,4 C 9,1 C 4,8 km/h (1 Bft)
09.10.2016 19:15 9,0 C 89 % 1023,0 hPa 0,0 l/m 1,7 km/h (1 Bft) N 5 0 min 0 W/m 7,3 C 9,0 C 4,8 km/h (1 Bft)
09.10.2016 19:18 8,9 C 90 % 1023,0 hPa 0,0 l/m 0,9 km/h (0 Bft) N 5 0 min 0 W/m 7,4 C 8,9 C 3,2 km/h (1 Bft)
09.10.2016 19:21 8,9 C 90 % 1023,0 hPa 0,0 l/m 0,7 km/h (0 Bft) N 5 0 min 0 W/m 7,4 C 8,9 C 3,2 km/h (1 Bft)
09.10.2016 19:24 8,8 C 90 % 1023,1 hPa 0,0 l/m 0,9 km/h (0 Bft) NW 315 0 min 0 W/m 7,3 C 8,8 C 4,8 km/h (1 Bft)
09.10.2016 19:27 8,8 C 89 % 1023,1 hPa 0,0 l/m 1,0 km/h (0 Bft) NW 321 0 min 0 W/m 7,1 C 8,8 C 4,8 km/h (1 Bft)
09.10.2016 19:30 8,8 C 89 % 1023,1 hPa 0,0 l/m 1,6 km/h (1 Bft) NO 35 0 min 0 W/m 7,1 C 8,8 C 6,4 km/h (2 Bft)
09.10.2016 19:33 8,9 C 89 % 1023,1 hPa 0,0 l/m 3,3 km/h (1 Bft) N 5 0 min 0 W/m 7,2 C 8,9 C 8,0 km/h (2 Bft)
09.10.2016 19:36 8,9 C 89 % 1023,1 hPa 0,0 l/m 3,5 km/h (1 Bft) NW 313 0 min 0 W/m 7,2 C 8,9 C 9,7 km/h (2 Bft)
09.10.2016 19:39 9,0 C 89 % 1023,1 hPa 0,0 l/m 2,4 km/h (1 Bft) N-NW 336 0 min 0 W/m 7,3 C 9,0 C 4,8 km/h (1 Bft)
09.10.2016 19:42 9,0 C 89 % 1023,1 hPa 0,0 l/m 2,9 km/h (1 Bft) N-NW 340 0 min 0 W/m 7,3 C 9,0 C 4,8 km/h (1 Bft)
09.10.2016 19:45 9,0 C 89 % 1023,1 hPa 0,0 l/m 1,1 km/h (1 Bft) NO 47 0 min 0 W/m 7,3 C 9,0 C 4,8 km/h (1 Bft)
09.10.2016 19:48 9,0 C 89 % 1023,1 hPa 0,0 l/m 2,7 km/h (1 Bft) NO 44 0 min 0 W/m 7,3 C 9,0 C 8,0 km/h (2 Bft)
09.10.2016 19:51 9,0 C 89 % 1023,2 hPa 0,0 l/m 2,6 km/h (1 Bft) N 9 0 min 0 W/m 7,3 C 9,0 C 6,4 km/h (2 Bft)
09.10.2016 19:54 8,9 C 89 % 1023,2 hPa 0,0 l/m 1,8 km/h (1 Bft) NO 55 0 min 0 W/m 7,2 C 8,9 C 4,8 km/h (1 Bft)
09.10.2016 19:57 8,9 C 90 % 1023,1 hPa 0,0 l/m 0,9 km/h (0 Bft) NO 42 0 min 0 W/m 7,4 C 8,9 C 4,8 km/h (1 Bft)
09.10.2016 20:00 8,9 C 89 % 1023,1 hPa 0,0 l/m 0,7 km/h (0 Bft) NO 40 0 min 0 W/m 7,2 C 8,9 C 1,6 km/h (1 Bft)
09.10.2016 20:03 8,9 C 90 % 1023,1 hPa 0,0 l/m 2,0 km/h (1 Bft) N-NO 28 0 min 0 W/m 7,4 C 8,9 C 8,0 km/h (2 Bft)
09.10.2016 20:06 8,9 C 90 % 1023,1 hPa 0,0 l/m 2,7 km/h (1 Bft) N 355 0 min 0 W/m 7,4 C 8,9 C 4,8 km/h (1 Bft)
09.10.2016 20:09 8,9 C 90 % 1023,1 hPa 0,0 l/m 1,1 km/h (1 Bft) O 94 0 min 0 W/m 7,4 C 8,9 C 3,2 km/h (1 Bft)
09.10.2016 20:12 8,9 C 90 % 1023,1 hPa 0,0 l/m 0,6 km/h (0 Bft) O 94 0 min 0 W/m 7,4 C 8,9 C 3,2 km/h (1 Bft)
09.10.2016 20:15 8,9 C 90 % 1023,2 hPa 0,0 l/m 1,0 km/h (0 Bft) N-NO 30 0 min 0 W/m 7,4 C 8,9 C 3,2 km/h (1 Bft)
09.10.2016 20:18 8,9 C 89 % 1023,2 hPa 0,0 l/m 1,3 km/h (1 Bft) N-NO 19 0 min 0 W/m 7,2 C 8,9 C 6,4 km/h (2 Bft)
09.10.2016 20:21 8,9 C 90 % 1023,2 hPa 0,0 l/m 1,8 km/h (1 Bft) N 355 0 min 0 W/m 7,4 C 8,9 C 4,8 km/h (1 Bft)
09.10.2016 20:24 8,8 C 90 % 1023,2 hPa 0,0 l/m 1,3 km/h (1 Bft) N-NW 346 0 min 0 W/m 7,3 C 8,8 C 3,2 km/h (1 Bft)
09.10.2016 20:27 8,8 C 90 % 1023,2 hPa 0,0 l/m 0,8 km/h (0 Bft) NO 38 0 min 0 W/m 7,3 C 8,8 C 3,2 km/h (1 Bft)
09.10.2016 20:30 8,8 C 90 % 1023,2 hPa 0,0 l/m 1,1 km/h (1 Bft) NO 37 0 min 0 W/m 7,3 C 8,8 C 3,2 km/h (1 Bft)
09.10.2016 20:33 8,8 C 90 % 1023,3 hPa 0,0 l/m 0,2 km/h (0 Bft) NO 36 0 min 0 W/m 7,3 C 8,8 C 1,6 km/h (1 Bft)
09.10.2016 20:36 8,7 C 90 % 1023,3 hPa 0,0 l/m 0,6 km/h (0 Bft) NO 34 0 min 0 W/m 7,2 C 8,7 C 3,2 km/h (1 Bft)
09.10.2016 20:39 8,7 C 90 % 1023,3 hPa 0,0 l/m 0,1 km/h (0 Bft) NO 34 0 min 0 W/m 7,2 C 8,7 C 1,6 km/h (1 Bft)
09.10.2016 20:42 8,7 C 90 % 1023,3 hPa 0,0 l/m 0,2 km/h (0 Bft) NO 34 0 min 0 W/m 7,2 C 8,7 C 1,6 km/h (1 Bft)
09.10.2016 20:45 8,6 C 90 % 1023,3 hPa 0,0 l/m 0,3 km/h (0 Bft) NO 36 0 min 0 W/m 7,1 C 8,6 C 3,2 km/h (1 Bft)
09.10.2016 20:48 8,6 C 90 % 1023,4 hPa 0,0 l/m 1,2 km/h (1 Bft) N-NO 32 0 min 0 W/m 7,1 C 8,6 C 3,2 km/h (1 Bft)
09.10.2016 20:51 8,5 C 90 % 1023,4 hPa 0,0 l/m 0,7 km/h (0 Bft) N 5 0 min 0 W/m 7,0 C 8,5 C 3,2 km/h (1 Bft)
09.10.2016 20:54 8,4 C 91 % 1023,4 hPa 0,0 l/m 0,8 km/h (0 Bft) N 5 0 min 0 W/m 7,0 C 8,4 C 3,2 km/h (1 Bft)
09.10.2016 20:57 8,4 C 91 % 1023,4 hPa 0,0 l/m 0,0 km/h (0 Bft) N 5 0 min 0 W/m 7,0 C 8,4 C 0,0 km/h (0 Bft)
09.10.2016 21:00 8,3 C 91 % 1023,4 hPa 0,0 l/m 0,0 km/h (0 Bft) N 5 0 min 0 W/m 6,9 C 8,3 C 1,6 km/h (1 Bft)
09.10.2016 21:03 8,3 C 91 % 1023,4 hPa 0,0 l/m 0,1 km/h (0 Bft) N 5 0 min 0 W/m 6,9 C 8,3 C 1,6 km/h (1 Bft)
09.10.2016 21:06 8,2 C 91 % 1023,4 hPa 0,0 l/m 0,0 km/h (0 Bft) N 5 0 min 0 W/m 6,8 C 8,2 C 0,0 km/h (0 Bft)
09.10.2016 21:09 8,2 C 91 % 1023,5 hPa 0,0 l/m 0,0 km/h (0 Bft) N 5 0 min 0 W/m 6,8 C 8,2 C 0,0 km/h (0 Bft)
09.10.2016 21:12 8,2 C 91 % 1023,5 hPa 0,0 l/m 0,0 km/h (0 Bft) N 5 0 min 0 W/m 6,8 C 8,2 C 0,0 km/h (0 Bft)
09.10.2016 21:15 8,1 C 91 % 1023,4 hPa 0,0 l/m 0,0 km/h (0 Bft) N 5 0 min 0 W/m 6,7 C 8,1 C 0,0 km/h (0 Bft)
09.10.2016 21:18 8,1 C 91 % 1023,4 hPa 0,0 l/m 0,0 km/h (0 Bft) N 5 0 min 0 W/m 6,7 C 8,1 C 1,6 km/h (1 Bft)
09.10.2016 21:21 8,0 C 92 % 1023,5 hPa 0,0 l/m 0,1 km/h (0 Bft) N 5 0 min 0 W/m 6,8 C 8,0 C 1,6 km/h (1 Bft)
09.10.2016 21:24 8,0 C 92 % 1023,5 hPa 0,0 l/m 0,4 km/h (0 Bft) N 5 0 min 0 W/m 6,8 C 8,0 C 1,6 km/h (1 Bft)
09.10.2016 21:27 8,1 C 92 % 1023,5 hPa 0,0 l/m 0,5 km/h (0 Bft) N-NO 12 0 min 0 W/m 6,9 C 8,1 C 3,2 km/h (1 Bft)
09.10.2016 21:30 8,1 C 92 % 1023,5 hPa 0,0 l/m 0,0 km/h (0 Bft) N-NO 13 0 min 0 W/m 6,9 C 8,1 C 0,0 km/h (0 Bft)
09.10.2016 21:33 8,1 C 92 % 1023,5 hPa 0,0 l/m 0,3 km/h (0 Bft) O-NO 76 0 min 0 W/m 6,9 C 8,1 C 3,2 km/h (1 Bft)
09.10.2016 21:36 8,1 C 92 % 1023,5 hPa 0,0 l/m 0,5 km/h (0 Bft) O-NO 75 0 min 0 W/m 6,9 C 8,1 C 3,2 km/h (1 Bft)
09.10.2016 21:39 8,1 C 92 % 1023,5 hPa 0,0 l/m 0,0 km/h (0 Bft) O-NO 75 0 min 0 W/m 6,9 C 8,1 C 0,0 km/h (0 Bft)
09.10.2016 21:42 8,1 C 92 % 1023,5 hPa 0,0 l/m 0,3 km/h (0 Bft) NO 42 0 min 0 W/m 6,9 C 8,1 C 4,8 km/h (1 Bft)
09.10.2016 21:45 8,2 C 92 % 1023,5 hPa 0,0 l/m 1,1 km/h (1 Bft) S-SO 151 0 min 0 W/m 7,0 C 8,2 C 4,8 km/h (1 Bft)
09.10.2016 21:48 8,2 C 92 % 1023,5 hPa 0,0 l/m 0,1 km/h (0 Bft) S-SO 155 0 min 0 W/m 7,0 C 8,2 C 1,6 km/h (1 Bft)
09.10.2016 21:51 8,2 C 93 % 1023,5 hPa 0,0 l/m 1,3 km/h (1 Bft) S-SW 205 0 min 0 W/m 7,1 C 8,2 C 3,2 km/h (1 Bft)
09.10.2016 21:54 8,3 C 93 % 1023,5 hPa 0,0 l/m 0,4 km/h (0 Bft) S-SW 209 0 min 0 W/m 7,2 C 8,3 C 3,2 km/h (1 Bft)
09.10.2016 21:57 8,3 C 92 % 1023,6 hPa 0,0 l/m 0,4 km/h (0 Bft) W-NW 288 0 min 0 W/m 7,1 C 8,3 C 3,2 km/h (1 Bft)
09.10.2016 22:00 8,4 C 92 % 1023,5 hPa 0,0 l/m 1,0 km/h (0 Bft) N-NW 327 0 min 0 W/m 7,2 C 8,4 C 4,8 km/h (1 Bft)
09.10.2016 22:03 8,4 C 92 % 1023,6 hPa 0,0 l/m 0,8 km/h (0 Bft) N-NW 327 0 min 0 W/m 7,2 C 8,4 C 3,2 km/h (1 Bft)
09.10.2016 22:06 8,4 C 92 % 1023,6 hPa 0,0 l/m 0,0 km/h (0 Bft) N-NW 327 0 min 0 W/m 7,2 C 8,4 C 0,0 km/h (0 Bft)
09.10.2016 22:09 8,4 C 92 % 1023,6 hPa 0,0 l/m 0,5 km/h (0 Bft) N-NW 327 0 min 0 W/m 7,2 C 8,4 C 3,2 km/h (1 Bft)
09.10.2016 22:12 8,4 C 92 % 1023,6 hPa 0,0 l/m 0,0 km/h (0 Bft) N-NW 327 0 min 0 W/m 7,2 C 8,4 C 0,0 km/h (0 Bft)
09.10.2016 22:15 8,4 C 92 % 1023,6 hPa 0,0 l/m 0,5 km/h (0 Bft) W-NW 296 0 min 0 W/m 7,2 C 8,4 C 4,8 km/h (1 Bft)
09.10.2016 22:18 8,4 C 92 % 1023,6 hPa 0,0 l/m 1,0 km/h (0 Bft) W-NW 296 0 min 0 W/m 7,2 C 8,4 C 3,2 km/h (1 Bft)
09.10.2016 22:21 8,4 C 92 % 1023,6 hPa 0,0 l/m 0,5 km/h (0 Bft) W-NW 296 0 min 0 W/m 7,2 C 8,4 C 3,2 km/h (1 Bft)
09.10.2016 22:24 8,4 C 92 % 1023,6 hPa 0,0 l/m 0,0 km/h (0 Bft) W-NW 296 0 min 0 W/m 7,2 C 8,4 C 0,0 km/h (0 Bft)
09.10.2016 22:27 8,3 C 92 % 1023,6 hPa 0,0 l/m 0,2 km/h (0 Bft) W-NW 296 0 min 0 W/m 7,1 C 8,3 C 1,6 km/h (1 Bft)
09.10.2016 22:30 8,3 C 92 % 1023,6 hPa 0,0 l/m 0,2 km/h (0 Bft) W-NW 296 0 min 0 W/m 7,1 C 8,3 C 1,6 km/h (1 Bft)
09.10.2016 22:33 8,3 C 92 % 1023,6 hPa 0,0 l/m 0,1 km/h (0 Bft) W-NW 296 0 min 0 W/m 7,1 C 8,3 C 1,6 km/h (1 Bft)
09.10.2016 22:36 8,2 C 92 % 1023,6 hPa 0,0 l/m 0,4 km/h (0 Bft) W-NW 296 0 min 0 W/m 7,0 C 8,2 C 1,6 km/h (1 Bft)
09.10.2016 22:39 8,2 C 92 % 1023,6 hPa 0,0 l/m 0,0 km/h (0 Bft) W-NW 296 0 min 0 W/m 7,0 C 8,2 C 1,6 km/h (1 Bft)
09.10.2016 22:42 8,1 C 92 % 1023,7 hPa 0,0 l/m 0,1 km/h (0 Bft) W-NW 296 0 min 0 W/m 6,9 C 8,1 C 1,6 km/h (1 Bft)
09.10.2016 22:45 8,0 C 92 % 1023,6 hPa 0,0 l/m 0,0 km/h (0 Bft) W-NW 296 0 min 0 W/m 6,8 C 8,0 C 0,0 km/h (0 Bft)
09.10.2016 22:48 7,9 C 92 % 1023,6 hPa 0,0 l/m 0,0 km/h (0 Bft) W-NW 296 0 min 0 W/m 6,7 C 7,9 C 0,0 km/h (0 Bft)
09.10.2016 22:51 7,9 C 92 % 1023,7 hPa 0,0 l/m 0,0 km/h (0 Bft) W-NW 296 0 min 0 W/m 6,7 C 7,9 C 0,0 km/h (0 Bft)
09.10.2016 22:54 7,8 C 93 % 1023,6 hPa 0,0 l/m 0,5 km/h (0 Bft) W-NW 296 0 min 0 W/m 6,7 C 7,8 C 3,2 km/h (1 Bft)
09.10.2016 22:57 7,8 C 93 % 1023,7 hPa 0,0 l/m 0,4 km/h (0 Bft) W-NW 296 0 min 0 W/m 6,7 C 7,8 C 1,6 km/h (1 Bft)
09.10.2016 23:00 7,8 C 93 % 1023,7 hPa 0,0 l/m 0,1 km/h (0 Bft) W-NW 296 0 min 0 W/m 6,7 C 7,8 C 1,6 km/h (1 Bft)
09.10.2016 23:03 7,8 C 93 % 1023,7 hPa 0,0 l/m 0,6 km/h (0 Bft) W-NW 296 0 min 0 W/m 6,7 C 7,8 C 3,2 km/h (1 Bft)
09.10.2016 23:06 7,8 C 93 % 1023,7 hPa 0,0 l/m 1,1 km/h (1 Bft) W-NW 298 0 min 0 W/m 6,7 C 7,8 C 3,2 km/h (1 Bft)
09.10.2016 23:09 7,8 C 93 % 1023,7 hPa 0,0 l/m 0,0 km/h (0 Bft) W-NW 298 0 min 0 W/m 6,7 C 7,8 C 0,0 km/h (0 Bft)
09.10.2016 23:12 7,7 C 93 % 1023,7 hPa 0,0 l/m 0,2 km/h (0 Bft) W-NW 298 0 min 0 W/m 6,6 C 7,7 C 3,2 km/h (1 Bft)
09.10.2016 23:15 7,7 C 93 % 1023,8 hPa 0,0 l/m 0,0 km/h (0 Bft) W-NW 298 0 min 0 W/m 6,6 C 7,7 C 0,0 km/h (0 Bft)
09.10.2016 23:18 7,7 C 94 % 1023,8 hPa 0,0 l/m 0,4 km/h (0 Bft) W-NW 298 0 min 0 W/m 6,8 C 7,7 C 1,6 km/h (1 Bft)
09.10.2016 23:21 7,8 C 94 % 1023,7 hPa 0,0 l/m 0,2 km/h (0 Bft) W-NW 298 0 min 0 W/m 6,9 C 7,8 C 1,6 km/h (1 Bft)
09.10.2016 23:24 7,7 C 94 % 1023,7 hPa 0,0 l/m 0,0 km/h (0 Bft) W-NW 298 0 min 0 W/m 6,8 C 7,7 C 0,0 km/h (0 Bft)
09.10.2016 23:27 7,8 C 94 % 1023,8 hPa 0,0 l/m 0,0 km/h (0 Bft) W-NW 298 0 min 0 W/m 6,9 C 7,8 C 0,0 km/h (0 Bft)
09.10.2016 23:30 7,8 C 94 % 1023,7 hPa 0,0 l/m 0,0 km/h (0 Bft) W-NW 298 0 min 0 W/m 6,9 C 7,8 C 0,0 km/h (0 Bft)
09.10.2016 23:33 7,8 C 94 % 1023,8 hPa 0,0 l/m 0,0 km/h (0 Bft) W-NW 298 0 min 0 W/m 6,9 C 7,8 C 0,0 km/h (0 Bft)
09.10.2016 23:36 7,8 C 93 % 1023,7 hPa 0,0 l/m 0,0 km/h (0 Bft) W-NW 298 0 min 0 W/m 6,7 C 7,8 C 0,0 km/h (0 Bft)
09.10.2016 23:39 7,8 C 94 % 1023,8 hPa 0,0 l/m 0,0 km/h (0 Bft) W-NW 298 0 min 0 W/m 6,9 C 7,8 C 0,0 km/h (0 Bft)
09.10.2016 23:42 7,9 C 94 % 1023,8 hPa 0,0 l/m 0,0 km/h (0 Bft) W-NW 298 0 min 0 W/m 7,0 C 7,9 C 0,0 km/h (0 Bft)
09.10.2016 23:45 7,9 C 93 % 1023,8 hPa 0,0 l/m 0,0 km/h (0 Bft) W-NW 298 0 min 0 W/m 6,8 C 7,9 C 1,6 km/h (1 Bft)
09.10.2016 23:48 7,9 C 93 % 1023,8 hPa 0,0 l/m 0,0 km/h (0 Bft) W-NW 298 0 min 0 W/m 6,8 C 7,9 C 1,6 km/h (1 Bft)
09.10.2016 23:51 7,9 C 93 % 1023,9 hPa 0,0 l/m 0,1 km/h (0 Bft) W-NW 298 0 min 0 W/m 6,8 C 7,9 C 1,6 km/h (1 Bft)
09.10.2016 23:54 7,9 C 93 % 1023,8 hPa 0,0 l/m 0,3 km/h (0 Bft) W-NW 298 0 min 0 W/m 6,8 C 7,9 C 3,2 km/h (1 Bft)
09.10.2016 23:57 7,8 C 93 % 1023,8 hPa 0,0 l/m 1,3 km/h (1 Bft) W-NW 298 0 min 0 W/m 6,7 C 7,8 C 3,2 km/h (1 Bft)
_ Min-Zeit 02:21 15:36 17:36 - 20:57 - - - - 02:21 02:21 20:57
Minimum _ 7,7 C 79 % 1022,7 hPa - 0,0 km/h (0 Bft) - - - - 6,6 C 7,7 C 0,0 km/h (0 Bft)
_ Max-Zeit 15:30 02:45 00:00 00:00 10:36 - - 15:21 15:21 04:30 15:30 09:36
Maximum _ 10,8 C 95 % 1025,7 hPa 0,0 l/m 8,4 km/h
N (2 Bft)
- - 3 min 234 W/m 8,4 C 10,8 C 20,9 km/h
N-NW (4 Bft)
Durchschnitt _ 9,2 C 89 % 1023,9 hPa #0,0 l/m 3,4 km/h (1 Bft) N-NW - #12 min. 101 W/m 7,4 C 9,1 C 8,0 km/h (2 Bft)
2016 Cux-Wetter.de -Die Nutzung der Wetterdaten nur mit ausdrcklicher Genehmigung